Time,TemperatureF,DewpointF,PressureIn,WindDirection,WindDirectionDegrees,WindSpeedMPH,WindSpeedGustMPH,Humidity,HourlyPrecipIn,Conditions,Clouds,dailyrainin,SoftwareType,DateUTC
2013-05-06 06:31:00,57.2,47.5,29.86,WSW,251,0.0,0.0,70,0.00,CLR,,0.00,WeatherDisplay:10.37,2013-05-06 13:31:00,
2013-05-06 06:32:00,57.2,47.5,29.87,WSW,251,0.0,0.0,70,0.00,CLR,,0.00,WeatherDisplay:10.37,2013-05-06 13:32:00,
2013-05-06 06:33:00,57.2,47.5,29.87,WSW,251,0.0,0.0,70,0.00,SCT,,0.00,WeatherDisplay:10.37,2013-05-06 13:33:00,
2013-05-06 06:37:00,57.2,47.9,29.87,WSW,251,0.0,0.0,71,0.00,SCT,,0.00,WeatherDisplay:10.37,2013-05-06 13:37:00,
2013-05-06 06:38:00,57.2,47.9,29.87,WSW,251,0.0,0.0,71,0.00,SCT,,0.00,WeatherDisplay:10.37,2013-05-06 13:38:00,
2013-05-06 06:39:00,57.2,47.5,29.87,WSW,251,0.0,0.0,70,0.00,SCT,,0.00,WeatherDisplay:10.37,2013-05-06 13:39:00,
2013-05-06 06:40:00,57.2,47.5,29.87,WSW,251,0.0,0.0,70,0.00,SCT,,0.00,WeatherDisplay:10.37,2013-05-06 13:40:00,
2013-05-06 06:42:00,57.2,47.9,29.87,WSW,251,0.0,0.0,71,0.00,SCT,,0.00,WeatherDisplay:10.37,2013-05-06 13:42:00,
2013-05-06 06:43:00,57.2,47.9,29.87,WSW,251,0.0,0.0,71,0.00,SCT,,0.00,WeatherDisplay:10.37,2013-05-06 13:43:00,
2013-05-06 06:45:00,57.3,47.6,29.87,WSW,251,0.0,0.0,70,0.00,SCT,,0.00,WeatherDisplay:10.37,2013-05-06 13:45:00,
2013-05-06 06:48:00,57.5,48.2,29.87,WSW,251,0.0,0.0,71,0.00,SCT,,0.00,WeatherDisplay:10.37,2013-05-06 13:48:00,
2013-05-06 06:49:00,57.6,48.3,29.87,WSW,251,0.0,0.0,71,0.00,SCT,,0.00,WeatherDisplay:10.37,2013-05-06 13:49:00,
2013-05-06 06:50:00,57.7,48.4,29.87,WSW,251,0.0,0.0,71,0.00,SCT,,0.00,WeatherDisplay:10.37,2013-05-06 13:50:00,
2013-05-06 06:53:00,57.8,48.1,29.87,WSW,251,1.2,0.0,70,0.00,SCT,,0.00,WeatherDisplay:10.37,2013-05-06 13:53:00,
2013-05-06 06:54:00,57.9,47.8,29.87,WSW,251,1.2,0.0,69,0.00,SCT,,0.00,WeatherDisplay:10.37,2013-05-06 13:54:00,
2013-05-06 06:55:00,57.9,48.2,29.87,WSW,251,1.2,0.0,70,0.00,SCT,,0.00,WeatherDisplay:10.37,2013-05-06 13:55:00,
2013-05-06 06:58:00,58.0,48.3,29.87,WSW,251,0.0,0.0,70,0.00,SCT,,0.00,WeatherDisplay:10.37,2013-05-06 13:58:00,
2013-05-06 07:00:00,58.0,47.9,29.88,WSW,251,0.0,0.0,69,0.00,SCT,,0.00,WeatherDisplay:10.37,2013-05-06 14:00:00,
2013-05-06 07:01:00,58.1,48.0,29.87,WSW,251,0.0,0.0,69,0.00,SCT,,0.00,WeatherDisplay:10.37,2013-05-06 14:01:00,
2013-05-06 07:03:00,58.1,48.4,29.87,WSW,251,0.0,0.0,70,0.00,SCT,,0.00,WeatherDisplay:10.37,2013-05-06 14:03:00,
2013-05-06 07:05:00,58.1,48.4,29.87,WSW,251,0.0,0.0,70,0.00,SCT,,0.00,WeatherDisplay:10.37,2013-05-06 14:05:00,
2013-05-06 07:06:00,58.1,48.0,29.88,WSW,251,0.0,0.0,69,0.00,SCT,,0.00,WeatherDisplay:10.37,2013-05-06 14:06:00,
2013-05-06 07:08:00,58.2,48.1,29.88,WSW,251,0.0,0.0,69,0.00,SCT,,0.00,WeatherDisplay:10.37,2013-05-06 14:08:00,
2013-05-06 07:10:00,58.3,48.6,29.88,WSW,251,0.0,0.0,70,0.00,SCT,,0.00,WeatherDisplay:10.37,2013-05-06 14:10:00,
2013-05-06 07:11:00,58.4,48.7,29.88,WSW,251,0.0,0.0,70,0.00,SCT,,0.00,WeatherDisplay:10.37,2013-05-06 14:11:00,
2013-05-06 07:12:00,58.4,48.3,29.88,WSW,251,0.0,0.0,69,0.00,SCT,,0.00,WeatherDisplay:10.37,2013-05-06 14:12:00,
2013-05-06 07:14:00,58.5,48.4,29.88,WSW,251,0.0,0.0,69,0.00,SCT,,0.00,WeatherDisplay:10.37,2013-05-06 14:14:00,
2013-05-06 07:16:00,58.6,48.5,29.88,WSW,251,0.0,0.0,69,0.00,SCT,,0.00,WeatherDisplay:10.37,2013-05-06 14:16:00,
2013-05-06 07:17:00,58.7,48.9,29.88,WSW,251,0.0,0.0,70,0.00,SCT,,0.00,WeatherDisplay:10.37,2013-05-06 14:17:00,
2013-05-06 07:19:00,58.8,49.0,29.88,WSW,251,0.0,0.0,70,0.00,SCT,,0.00,WeatherDisplay:10.37,2013-05-06 14:19:00,
2013-05-06 07:21:00,59.1,49.3,29.88,WSW,251,0.0,0.0,70,0.00,SCT,,0.00,WeatherDisplay:10.37,2013-05-06 14:21:00,
2013-05-06 07:22:00,59.2,49.8,29.88,WSW,251,0.0,0.0,71,0.00,SCT,,0.00,WeatherDisplay:10.37,2013-05-06 14:22:00,
2013-05-06 07:23:00,59.2,49.4,29.88,WSW,251,0.0,0.0,70,0.00,SCT,,0.00,WeatherDisplay:10.37,2013-05-06 14:23:00,
2013-05-06 07:24:00,59.4,49.2,29.88,WSW,251,0.0,0.0,69,0.00,SCT,,0.00,WeatherDisplay:10.37,2013-05-06 14:24:00,
2013-05-06 07:25:00,59.4,49.2,29.88,WSW,251,0.0,0.0,69,0.00,SCT,,0.00,WeatherDisplay:10.37,2013-05-06 14:25:00,
2013-05-06 07:27:00,59.5,48.9,29.88,WSW,251,0.0,0.0,68,0.00,SCT,,0.00,WeatherDisplay:10.37,2013-05-06 14:27:00,
2013-05-06 07:28:00,59.5,48.9,29.88,WSW,251,0.0,0.0,68,0.00,SCT,,0.00,WeatherDisplay:10.37,2013-05-06 14:28:00,
2013-05-06 07:29:00,59.6,49.0,29.88,WSW,251,1.2,1.2,68,0.00,SCT,,0.00,WeatherDisplay:10.37,2013-05-06 14:29:00,
2013-05-06 07:31:00,59.8,49.6,29.88,WSW,251,0.0,0.0,69,0.00,SCT,,0.00,WeatherDisplay:10.37,2013-05-06 14:31:00,
2013-05-06 07:33:00,60.0,49.8,29.88,WSW,251,0.0,0.0,69,0.00,SCT,,0.00,WeatherDisplay:10.37,2013-05-06 14:33:00,
2013-05-06 07:34:00,60.3,49.3,29.88,WSW,251,0.0,0.0,67,0.00,SCT,,0.00,WeatherDisplay:10.37,2013-05-06 14:34:00,
2013-05-06 07:35:00,60.3,49.3,29.88,WSW,251,0.0,0.0,67,0.00,SCT,,0.00,WeatherDisplay:10.37,2013-05-06 14:35:00,
2013-05-06 07:36:00,60.8,49.8,29.88,WSW,251,0.0,0.0,67,0.00,SCT,,0.00,WeatherDisplay:10.37,2013-05-06 14:36:00,
2013-05-06 07:38:00,61.2,49.3,29.88,SW,222,1.2,1.2,65,0.00,SCT,,0.00,WeatherDisplay:10.37,2013-05-06 14:38:00,
2013-05-06 07:39:00,61.3,49.4,29.88,SW,222,1.2,0.0,65,0.00,SCT,,0.00,WeatherDisplay:10.37,2013-05-06 14:39:00,
2013-05-06 07:40:00,61.5,49.2,29.88,SW,222,0.0,0.0,64,0.00,SCT,,0.00,WeatherDisplay:10.37,2013-05-06 14:40:00,
2013-05-06 07:42:00,61.8,49.1,29.88,SW,222,0.0,0.0,63,0.00,SCT,,0.00,WeatherDisplay:10.37,2013-05-06 14:42:00,
2013-05-06 07:43:00,62.0,48.8,29.88,SW,222,0.0,0.0,62,0.00,SCT,,0.00,WeatherDisplay:10.37,2013-05-06 14:43:00,
2013-05-06 07:44:00,62.0,48.8,29.88,SW,222,0.0,0.0,62,0.00,SCT,,0.00,WeatherDisplay:10.37,2013-05-06 14:44:00,
2013-05-06 07:45:00,62.1,48.9,29.88,SW,222,0.0,0.0,62,0.00,SCT,,0.00,WeatherDisplay:10.37,2013-05-06 14:45:00,
2013-05-06 07:46:00,62.2,48.6,29.88,SW,222,0.0,0.0,61,0.00,SCT,,0.00,WeatherDisplay:10.37,2013-05-06 14:46:00,
2013-05-06 07:48:00,62.3,48.2,29.89,SW,222,0.0,0.0,60,0.00,SCT,,0.00,WeatherDisplay:10.37,2013-05-06 14:48:00,
2013-05-06 07:49:00,62.4,48.3,29.88,SW,222,0.0,0.0,60,0.00,SCT,,0.00,WeatherDisplay:10.37,2013-05-06 14:49:00,
2013-05-06 07:50:00,62.5,49.7,29.88,SW,222,0.0,0.0,63,0.00,SCT,,0.00,WeatherDisplay:10.37,2013-05-06 14:50:00,
2013-05-06 07:51:00,62.6,48.5,29.89,SW,222,0.0,0.0,60,0.00,SCT,,0.00,WeatherDisplay:10.37,2013-05-06 14:51:00,
2013-05-06 07:53:00,62.9,48.8,29.88,SW,222,0.0,0.0,60,0.00,SCT,,0.00,WeatherDisplay:10.37,2013-05-06 14:53:00,
2013-05-06 07:54:00,62.9,48.8,29.88,SW,222,0.0,0.0,60,0.00,SCT,,0.00,WeatherDisplay:10.37,2013-05-06 14:54:00,
2013-05-06 07:55:00,63.0,48.4,29.88,SW,222,0.0,0.0,59,0.00,SCT,,0.00,WeatherDisplay:10.37,2013-05-06 14:55:00,
2013-05-06 07:56:00,63.0,49.3,29.89,SW,222,0.0,0.0,61,0.00,SCT,,0.00,WeatherDisplay:10.37,2013-05-06 14:56:00,
2013-05-06 07:59:00,63.5,48.9,29.89,SW,222,0.0,0.0,59,0.00,SCT,,0.00,WeatherDisplay:10.37,2013-05-06 14:59:00,
2013-05-06 08:01:00,63.8,48.3,29.89,SW,222,0.0,0.0,57,0.00,SCT,,0.00,WeatherDisplay:10.37,2013-05-06 15:01:00,
2013-05-06 08:02:00,63.9,48.4,29.89,SW,222,0.0,0.0,57,0.00,SCT,,0.00,WeatherDisplay:10.37,2013-05-06 15:02:00,
2013-05-06 08:04:00,63.8,47.8,29.89,SW,222,0.0,0.0,56,0.00,SCT,,0.00,WeatherDisplay:10.37,2013-05-06 15:04:00,
2013-05-06 08:05:00,63.7,47.7,29.89,SW,222,0.0,0.0,56,0.00,SCT,,0.00,WeatherDisplay:10.37,2013-05-06 15:05:00,
2013-05-06 08:07:00,64.1,48.5,29.89,SW,222,0.0,0.0,57,0.00,SCT,,0.00,WeatherDisplay:10.37,2013-05-06 15:07:00,
2013-05-06 08:08:00,64.3,48.3,29.89,SW,222,0.0,0.0,56,0.00,SCT,,0.00,WeatherDisplay:10.37,2013-05-06 15:08:00,
2013-05-06 08:09:00,64.4,48.4,29.89,SW,222,0.0,0.0,56,0.00,SCT,,0.00,WeatherDisplay:10.37,2013-05-06 15:09:00,
2013-05-06 08:10:00,64.5,48.9,29.89,SW,222,0.0,0.0,57,0.00,SCT,,0.00,WeatherDisplay:10.37,2013-05-06 15:10:00,
2013-05-06 08:12:00,65.0,48.9,29.89,SW,222,0.0,0.0,56,0.00,SCT,,0.00,WeatherDisplay:10.37,2013-05-06 15:12:00,
2013-05-06 08:14:00,65.4,49.3,29.89,South,170,0.0,0.0,56,0.00,SCT,,0.00,WeatherDisplay:10.37,2013-05-06 15:14:00,
2013-05-06 08:15:00,65.3,49.2,29.89,SW,216,0.0,0.0,56,0.00,SCT,,0.00,WeatherDisplay:10.37,2013-05-06 15:15:00,
2013-05-06 08:16:00,65.6,48.5,29.89,NNW,336,0.0,0.0,54,0.00,SCT,,0.00,WeatherDisplay:10.37,2013-05-06 15:16:00,
2013-05-06 08:19:00,65.8,48.7,29.89,NE,38,0.0,0.0,54,0.00,SCT,,0.00,WeatherDisplay:10.37,2013-05-06 15:19:00,
2013-05-06 08:20:00,66.0,48.4,29.89,NE,43,0.0,0.0,53,0.00,SCT,,0.00,WeatherDisplay:10.37,2013-05-06 15:20:00,
2013-05-06 08:21:00,66.3,48.7,29.89,North,357,0.0,0.0,53,0.00,SCT,,0.00,WeatherDisplay:10.37,2013-05-06 15:21:00,
2013-05-06 08:22:00,66.5,48.3,29.89,NW,309,0.0,0.0,52,0.00,SCT,,0.00,WeatherDisplay:10.37,2013-05-06 15:22:00,
2013-05-06 08:24:00,66.5,47.8,29.89,NNE,18,0.0,0.0,51,0.00,SCT,,0.00,WeatherDisplay:10.37,2013-05-06 15:24:00,
2013-05-06 08:25:00,66.4,48.2,29.89,North,10,0.0,0.0,52,0.00,SCT,,0.00,WeatherDisplay:10.37,2013-05-06 15:25:00,
2013-05-06 08:26:00,66.5,48.3,29.89,NE,52,0.0,0.0,52,0.00,SCT,,0.00,WeatherDisplay:10.37,2013-05-06 15:26:00,
2013-05-06 08:27:00,66.6,47.9,29.89,NNE,23,0.0,0.0,51,0.00,SCT,,0.00,WeatherDisplay:10.37,2013-05-06 15:27:00,
2013-05-06 08:28:00,66.6,48.4,29.89,NNE,21,0.0,0.0,52,0.00,SCT,,0.00,WeatherDisplay:10.37,2013-05-06 15:28:00,
2013-05-06 08:29:00,66.6,48.4,29.89,NW,326,0.0,0.0,52,0.00,SCT,,0.00,WeatherDisplay:10.37,2013-05-06 15:29:00,
2013-05-06 08:31:00,66.6,48.4,29.89,North,358,0.0,0.0,52,0.00,SCT,,0.00,WeatherDisplay:10.37,2013-05-06 15:31:00,
2013-05-06 08:32:00,66.8,48.1,29.89,North,9,0.0,0.0,51,0.00,SCT,,0.00,WeatherDisplay:10.37,2013-05-06 15:32:00,
2013-05-06 08:33:00,66.9,48.7,29.89,NNE,26,0.0,0.0,52,0.00,SCT,,0.00,WeatherDisplay:10.37,2013-05-06 15:33:00,
2013-05-06 08:36:00,67.1,47.8,29.89,NNE,12,0.0,0.0,50,0.00,SCT,,0.00,WeatherDisplay:10.37,2013-05-06 15:36:00,
2013-05-06 08:37:00,67.1,48.4,29.89,North,6,0.0,0.0,51,0.00,SCT,,0.00,WeatherDisplay:10.37,2013-05-06 15:37:00,
2013-05-06 08:38:00,67.1,48.9,29.89,NE,42,0.0,0.0,52,0.00,SCT,,0.00,WeatherDisplay:10.37,2013-05-06 15:38:00,
2013-05-06 08:42:00,67.6,48.8,29.89,NNE,24,0.0,0.0,51,0.00,SCT,,0.00,WeatherDisplay:10.37,2013-05-06 15:42:00,
2013-05-06 08:43:00,67.7,48.4,29.90,NNW,348,0.0,0.0,50,0.00,SCT,,0.00,WeatherDisplay:10.37,2013-05-06 15:43:00,
2013-05-06 08:44:00,67.7,48.4,29.90,North,349,0.0,0.0,50,0.00,SCT,,0.00,WeatherDisplay:10.37,2013-05-06 15:44:00,
2013-05-06 08:47:00,67.5,48.2,29.89,North,352,0.0,0.0,50,0.00,SCT,,0.00,WeatherDisplay:10.37,2013-05-06 15:47:00,
2013-05-06 08:48:00,67.5,48.2,29.90,North,6,0.0,0.0,50,0.00,SCT,,0.00,WeatherDisplay:10.37,2013-05-06 15:48:00,
2013-05-06 08:49:00,67.6,48.8,29.89,North,9,0.0,0.0,51,0.00,SCT,,0.00,WeatherDisplay:10.37,2013-05-06 15:49:00,
2013-05-06 08:52:00,68.1,48.2,29.89,NNE,12,0.0,0.0,49,0.00,SCT,,0.00,WeatherDisplay:10.37,2013-05-06 15:52:00,
2013-05-06 08:54:00,68.3,48.9,29.89,NNE,31,0.0,0.0,50,0.00,SCT,,0.00,WeatherDisplay:10.37,2013-05-06 15:54:00,
2013-05-06 08:55:00,68.4,48.5,29.90,NNE,31,0.0,0.0,49,0.00,SCT,,0.00,WeatherDisplay:10.37,2013-05-06 15:55:00,
2013-05-06 08:58:00,68.9,48.4,29.90,NW,316,0.0,0.0,48,0.00,SCT,,0.00,WeatherDisplay:10.37,2013-05-06 15:58:00,
2013-05-06 09:00:00,68.9,47.8,29.90,NNE,12,0.0,0.0,47,0.00,SCT,,0.00,WeatherDisplay:10.37,2013-05-06 16:00:00,
2013-05-06 09:01:00,69.0,47.9,29.90,North,356,0.0,0.0,47,0.00,SCT,,0.00,WeatherDisplay:10.37,2013-05-06 16:01:00,
2013-05-06 09:05:00,69.3,48.2,29.90,North,5,0.0,0.0,47,0.00,SCT,,0.00,WeatherDisplay:10.37,2013-05-06 16:05:00,
2013-05-06 09:06:00,69.6,47.9,29.90,NE,41,0.0,0.0,46,0.00,SCT,,0.00,WeatherDisplay:10.37,2013-05-06 16:06:00,
2013-05-06 09:07:00,69.6,47.9,29.90,NE,44,0.0,0.0,46,0.00,SCT,,0.00,WeatherDisplay:10.37,2013-05-06 16:07:00,
2013-05-06 09:10:00,69.5,47.8,29.90,North,3,0.0,0.0,46,0.00,SCT,,0.00,WeatherDisplay:10.37,2013-05-06 16:10:00,
2013-05-06 09:11:00,69.5,48.4,29.90,North,356,0.0,0.0,47,0.00,SCT,,0.00,WeatherDisplay:10.37,2013-05-06 16:11:00,
2013-05-06 09:12:00,69.5,47.8,29.90,North,356,0.0,0.0,46,0.00,SCT,,0.00,WeatherDisplay:10.37,2013-05-06 16:12:00,
2013-05-06 09:16:00,69.3,47.6,29.90,NE,35,0.0,0.0,46,0.00,SCT,,0.00,WeatherDisplay:10.37,2013-05-06 16:16:00,
2013-05-06 09:17:00,69.3,47.6,29.90,NE,35,0.0,0.0,46,0.00,SCT,,0.00,WeatherDisplay:10.37,2013-05-06 16:17:00,
2013-05-06 09:18:00,69.1,47.4,29.90,NE,45,0.0,0.0,46,0.00,SCT,,0.00,WeatherDisplay:10.37,2013-05-06 16:18:00,
2013-05-06 09:22:00,68.3,47.8,29.90,North,10,0.0,0.0,48,0.00,SCT,,0.00,WeatherDisplay:10.37,2013-05-06 16:22:00,
2013-05-06 09:23:00,68.2,47.8,29.90,North,11,0.0,0.0,48,0.00,SCT,,0.00,WeatherDisplay:10.37,2013-05-06 16:23:00,
2013-05-06 09:24:00,68.1,47.7,29.90,ENE,76,0.0,0.0,48,0.00,SCT,,0.00,WeatherDisplay:10.37,2013-05-06 16:24:00,
2013-05-06 09:27:00,68.0,47.0,29.90,North,358,4.6,4.6,47,0.00,SCT,,0.00,WeatherDisplay:10.37,2013-05-06 16:27:00,
2013-05-06 09:28:00,67.9,46.9,29.90,North,10,4.6,4.6,47,0.00,SCT,,0.00,WeatherDisplay:10.37,2013-05-06 16:28:00,
2013-05-06 09:29:00,67.8,46.8,29.90,North,352,4.6,4.6,47,0.00,SCT,,0.00,WeatherDisplay:10.37,2013-05-06 16:29:00,
2013-05-06 09:30:00,67.7,46.7,29.90,North,3,8.1,8.1,47,0.00,SCT,,0.00,WeatherDisplay:10.37,2013-05-06 16:30:00,
2013-05-06 09:32:00,67.9,46.3,29.90,North,357,3.5,3.5,46,0.00,SCT,,0.00,WeatherDisplay:10.37,2013-05-06 16:32:00,
2013-05-06 09:33:00,68.0,46.4,29.90,East,101,3.5,3.5,46,0.00,SCT,,0.00,WeatherDisplay:10.37,2013-05-06 16:33:00,
2013-05-06 09:34:00,68.0,46.4,29.90,East,101,3.5,3.5,46,0.00,SCT,,0.00,WeatherDisplay:10.37,2013-05-06 16:34:00,
2013-05-06 09:35:00,68.1,47.1,29.90,NNE,16,3.5,3.5,47,0.00,SCT,,0.00,WeatherDisplay:10.37,2013-05-06 16:35:00,
2013-05-06 09:37:00,68.1,47.1,29.90,East,84,3.0,3.0,47,0.00,SCT,,0.00,WeatherDisplay:10.37,2013-05-06 16:37:00,
2013-05-06 09:38:00,68.1,47.1,29.90,North,7,3.5,3.5,47,0.00,SCT,,0.00,WeatherDisplay:10.37,2013-05-06 16:38:00,
2013-05-06 09:40:00,68.0,46.4,29.90,NNE,25,5.8,5.8,46,0.00,SCT,,0.00,WeatherDisplay:10.37,2013-05-06 16:40:00,
2013-05-06 09:41:00,67.9,46.3,29.90,NNE,16,5.8,5.8,46,0.00,SCT,,0.00,WeatherDisplay:10.37,2013-05-06 16:41:00,
2013-05-06 09:43:00,67.9,46.9,29.90,NNE,25,2.3,2.3,47,0.00,SCT,,0.00,WeatherDisplay:10.37,2013-05-06 16:43:00,
2013-05-06 09:44:00,67.9,46.3,29.90,NNE,18,3.5,3.5,46,0.00,SCT,,0.00,WeatherDisplay:10.37,2013-05-06 16:44:00,
2013-05-06 09:46:00,67.7,46.7,29.90,North,11,2.3,2.3,47,0.00,SCT,,0.00,WeatherDisplay:10.37,2013-05-06 16:46:00,
2013-05-06 09:47:00,67.7,47.3,29.90,NNE,16,2.3,2.3,48,0.00,SCT,,0.00,WeatherDisplay:10.37,2013-05-06 16:47:00,
2013-05-06 09:49:00,67.5,47.1,29.90,North,7,6.9,6.9,48,0.00,SCT,,0.00,WeatherDisplay:10.37,2013-05-06 16:49:00,
2013-05-06 09:52:00,67.2,46.8,29.90,North,5,1.2,1.2,48,0.00,SCT,,0.00,WeatherDisplay:10.37,2013-05-06 16:52:00,
2013-05-06 09:53:00,67.2,46.8,29.90,North,6,1.2,1.2,48,0.00,SCT,,0.00,WeatherDisplay:10.37,2013-05-06 16:53:00,
2013-05-06 09:54:00,67.1,47.3,29.90,North,10,1.2,1.2,49,0.00,SCT,,0.00,WeatherDisplay:10.37,2013-05-06 16:54:00,
2013-05-06 09:55:00,67.1,47.3,29.90,North,11,2.3,2.3,49,0.00,SCT,,0.00,WeatherDisplay:10.37,2013-05-06 16:55:00,
2013-05-06 09:57:00,66.9,47.1,29.90,North,351,2.3,2.3,49,0.00,SCT,,0.00,WeatherDisplay:10.37,2013-05-06 16:57:00,
2013-05-06 09:58:00,66.9,47.1,29.90,North,4,3.5,3.5,49,0.00,SCT,,0.00,WeatherDisplay:10.37,2013-05-06 16:58:00,
2013-05-06 09:59:00,66.9,47.1,29.90,North,358,3.5,3.5,49,0.00,SCT,,0.00,WeatherDisplay:10.37,2013-05-06 16:59:00,
2013-05-06 10:00:00,66.8,47.0,29.90,North,359,3.5,3.5,49,0.00,SCT,,0.00,WeatherDisplay:10.37,2013-05-06 17:00:00,
2013-05-06 10:03:00,67.3,46.9,29.91,NNE,19,2.3,2.3,48,0.00,SCT,,0.00,WeatherDisplay:10.37,2013-05-06 17:03:00,
2013-05-06 10:05:00,67.3,46.9,29.90,NNE,15,0.0,0.0,48,0.00,SCT,,0.00,WeatherDisplay:10.37,2013-05-06 17:05:00,
2013-05-06 10:06:00,67.4,47.0,29.90,North,358,2.3,2.3,48,0.00,SCT,,0.00,WeatherDisplay:10.37,2013-05-06 17:06:00,
2013-05-06 10:08:00,67.6,47.2,29.90,North,356,2.3,2.3,48,0.00,SCT,,0.00,WeatherDisplay:10.37,2013-05-06 17:08:00,
2013-05-06 10:09:00,67.7,46.7,29.91,North,356,2.3,0.0,47,0.00,SCT,,0.00,WeatherDisplay:10.37,2013-05-06 17:09:00,
2013-05-06 10:10:00,67.8,46.8,29.90,North,354,1.2,0.0,47,0.00,SCT,,0.00,WeatherDisplay:10.37,2013-05-06 17:10:00,
2013-05-06 10:11:00,67.8,46.8,29.91,NNW,343,1.2,1.2,47,0.00,SCT,,0.00,WeatherDisplay:10.37,2013-05-06 17:11:00,
2013-05-06 10:12:00,67.9,46.9,29.90,NNW,343,1.2,0.0,47,0.00,SCT,,0.00,WeatherDisplay:10.37,2013-05-06 17:12:00,
2013-05-06 10:13:00,68.2,47.8,29.91,NNW,343,0.0,0.0,48,0.00,SCT,,0.00,WeatherDisplay:10.37,2013-05-06 17:13:00,
2013-05-06 10:14:00,68.4,47.4,29.90,NNW,343,1.0,0.0,47,0.00,SCT,,0.00,WeatherDisplay:10.37,2013-05-06 17:14:00,
2013-05-06 10:16:00,68.6,47.6,29.90,SE,139,2.3,2.3,47,0.00,SCT,,0.00,WeatherDisplay:10.37,2013-05-06 17:16:00,
2013-05-06 10:17:00,68.7,47.6,29.90,ENE,61,2.3,2.3,47,0.00,SCT,,0.00,WeatherDisplay:10.37,2013-05-06 17:17:00,
2013-05-06 10:18:00,68.8,47.7,29.90,NNE,22,3.5,3.5,47,0.00,SCT,,0.00,WeatherDisplay:10.37,2013-05-06 17:18:00,
2013-05-06 10:20:00,68.8,47.2,29.91,North,360,3.5,3.5,46,0.00,SCT,,0.00,WeatherDisplay:10.37,2013-05-06 17:20:00,
2013-05-06 10:21:00,68.8,47.2,29.91,North,360,0.0,0.0,46,0.00,SCT,,0.00,WeatherDisplay:10.37,2013-05-06 17:21:00,
2013-05-06 10:22:00,68.8,47.2,29.91,North,360,0.0,0.0,46,0.00,SCT,,0.00,WeatherDisplay:10.37,2013-05-06 17:22:00,
2013-05-06 10:23:00,68.9,47.8,29.90,North,360,1.2,0.0,47,0.00,SCT,,0.00,WeatherDisplay:10.37,2013-05-06 17:23:00,
2013-05-06 10:24:00,69.0,47.4,29.91,North,360,2.3,2.3,46,0.00,SCT,,0.00,WeatherDisplay:10.37,2013-05-06 17:24:00,
2013-05-06 10:25:00,68.9,46.7,29.91,North,360,2.3,0.0,45,0.00,SCT,,0.00,WeatherDisplay:10.37,2013-05-06 17:25:00,
2013-05-06 10:26:00,68.8,47.2,29.90,North,360,0.0,0.0,46,0.00,SCT,,0.00,WeatherDisplay:10.37,2013-05-06 17:26:00,
2013-05-06 10:28:00,68.6,48.1,29.90,North,360,0.0,0.0,48,0.00,SCT,,0.00,WeatherDisplay:10.37,2013-05-06 17:28:00,
2013-05-06 10:30:00,68.8,47.7,29.90,North,350,1.2,1.2,47,0.00,SCT,,0.00,WeatherDisplay:10.37,2013-05-06 17:30:00,
2013-05-06 10:31:00,68.8,47.2,29.91,WSW,252,1.2,1.2,46,0.00,SCT,,0.00,WeatherDisplay:10.37,2013-05-06 17:31:00,
2013-05-06 10:33:00,68.6,47.0,29.90,North,3,2.3,2.3,46,0.00,SCT,,0.00,WeatherDisplay:10.37,2013-05-06 17:33:00,
2013-05-06 10:36:00,68.6,47.0,29.91,North,4,0.0,0.0,46,0.00,SCT,,0.00,WeatherDisplay:10.37,2013-05-06 17:36:00,
2013-05-06 10:37:00,68.6,47.6,29.91,North,4,0.0,0.0,47,0.00,SCT,,0.00,WeatherDisplay:10.37,2013-05-06 17:37:00,
2013-05-06 10:38:00,68.7,47.6,29.90,ESE,111,2.0,2.0,47,0.00,SCT,,0.00,WeatherDisplay:10.37,2013-05-06 17:38:00,
2013-05-06 10:39:00,68.8,47.7,29.91,SE,139,1.0,1.0,47,0.00,SCT,,0.00,WeatherDisplay:10.37,2013-05-06 17:39:00,
2013-05-06 10:41:00,69.3,47.6,29.90,NE,53,3.5,3.5,46,0.00,SCT,,0.00,WeatherDisplay:10.37,2013-05-06 17:41:00,
2013-05-06 10:42:00,69.5,47.8,29.90,NE,45,0.0,0.3,46,0.00,SCT,,0.00,WeatherDisplay:10.37,2013-05-06 17:42:00,
2013-05-06 10:43:00,69.6,47.9,29.90,ESE,121,3.0,3.0,46,0.00,SCT,,0.00,WeatherDisplay:10.37,2013-05-06 17:43:00,
2013-05-06 10:44:00,69.7,48.0,29.90,SE,124,4.0,4.0,46,0.00,SCT,,0.00,WeatherDisplay:10.37,2013-05-06 17:44:00,
2013-05-06 10:46:00,70.1,47.2,29.90,NE,48,3.5,3.5,44,0.00,SCT,,0.00,WeatherDisplay:10.37,2013-05-06 17:46:00,
2013-05-06 10:47:00,70.1,47.2,29.90,NE,51,3.5,3.5,44,0.00,SCT,,0.00,WeatherDisplay:10.37,2013-05-06 17:47:00,
2013-05-06 10:48:00,70.3,47.9,29.90,NE,51,1.2,1.2,45,0.00,SCT,,0.00,WeatherDisplay:10.37,2013-05-06 17:48:00,
2013-05-06 10:49:00,70.4,47.4,29.90,NE,52,1.2,1.2,44,0.00,SCT,,0.00,WeatherDisplay:10.37,2013-05-06 17:49:00,
2013-05-06 10:51:00,70.5,46.9,29.90,NE,36,1.2,0.0,43,0.00,SCT,,0.00,WeatherDisplay:10.37,2013-05-06 17:51:00,
2013-05-06 10:52:00,70.5,46.9,29.91,North,351,3.5,3.5,43,0.00,SCT,,0.00,WeatherDisplay:10.37,2013-05-06 17:52:00,
2013-05-06 10:53:00,70.5,46.3,29.91,North,355,3.5,3.5,42,0.00,SCT,,0.00,WeatherDisplay:10.37,2013-05-06 17:53:00,
2013-05-06 10:54:00,70.4,46.2,29.91,North,353,3.5,3.5,42,0.00,SCT,,0.00,WeatherDisplay:10.37,2013-05-06 17:54:00,
2013-05-06 10:56:00,70.4,45.6,29.90,North,353,0.0,0.0,41,0.00,SCT,,0.00,WeatherDisplay:10.37,2013-05-06 17:56:00,
2013-05-06 10:57:00,70.2,46.0,29.90,North,4,5.0,5.0,42,0.00,SCT,,0.00,WeatherDisplay:10.37,2013-05-06 17:57:00,
2013-05-06 10:59:00,70.1,45.9,29.91,North,357,3.5,3.5,42,0.00,SCT,,0.00,WeatherDisplay:10.37,2013-05-06 17:59:00,
2013-05-06 11:02:00,70.2,46.6,29.91,North,3,3.5,3.5,43,0.00,SCT,,0.00,WeatherDisplay:10.37,2013-05-06 18:02:00,
2013-05-06 11:03:00,70.4,46.8,29.90,North,3,1.0,1.0,43,0.00,SCT,,0.00,WeatherDisplay:10.37,2013-05-06 18:03:00,
2013-05-06 11:05:00,70.6,46.4,29.91,NNE,16,3.5,3.5,42,0.00,SCT,,0.00,WeatherDisplay:10.37,2013-05-06 18:05:00,
2013-05-06 11:07:00,71.0,46.7,29.90,ESE,104,3.5,3.5,42,0.00,SCT,,0.00,WeatherDisplay:10.37,2013-05-06 18:07:00,
2013-05-06 11:08:00,71.0,46.7,29.90,ESE,104,3.5,3.5,42,0.00,SCT,,0.00,WeatherDisplay:10.37,2013-05-06 18:08:00,
2013-05-06 11:09:00,71.1,45.5,29.91,ESE,103,3.5,0.0,40,0.00,SCT,,0.00,WeatherDisplay:10.37,2013-05-06 18:09:00,
2013-05-06 11:10:00,71.0,45.5,29.91,SE,125,3.5,3.5,40,0.00,SCT,,0.00,WeatherDisplay:10.37,2013-05-06 18:10:00,
2013-05-06 11:11:00,70.9,46.0,29.90,SE,125,0.0,0.0,41,0.00,SCT,,0.00,WeatherDisplay:10.37,2013-05-06 18:11:00,
2013-05-06 11:12:00,70.9,46.0,29.90,NW,326,1.2,1.2,41,0.00,SCT,,0.00,WeatherDisplay:10.37,2013-05-06 18:12:00,
2013-05-06 11:13:00,70.9,46.0,29.91,NW,324,1.2,1.2,41,0.00,SCT,,0.00,WeatherDisplay:10.37,2013-05-06 18:13:00,
2013-05-06 11:14:00,70.7,45.2,29.90,NW,322,1.2,0.0,40,0.00,SCT,,0.00,WeatherDisplay:10.37,2013-05-06 18:14:00,
2013-05-06 11:15:00,70.6,46.4,29.91,NNW,328,1.2,1.2,42,0.00,SCT,,0.00,WeatherDisplay:10.37,2013-05-06 18:15:00,
2013-05-06 11:16:00,70.6,45.7,29.91,NNE,17,3.0,3.0,41,0.00,SCT,,0.00,WeatherDisplay:10.37,2013-05-06 18:16:00,
2013-05-06 11:18:00,70.6,45.7,29.91,NNW,334,5.0,5.0,41,0.00,SCT,,0.00,WeatherDisplay:10.37,2013-05-06 18:18:00,
2013-05-06 11:19:00,70.6,46.4,29.91,North,359,4.6,4.6,42,0.00,SCT,,0.00,WeatherDisplay:10.37,2013-05-06 18:19:00,
2013-05-06 11:21:00,70.6,45.7,29.91,NNW,330,4.6,4.6,41,0.00,SCT,,0.00,WeatherDisplay:10.37,2013-05-06 18:21:00,
2013-05-06 11:22:00,70.6,45.7,29.91,NNE,16,3.5,3.5,41,0.00,SCT,,0.00,WeatherDisplay:10.37,2013-05-06 18:22:00,
2013-05-06 11:23:00,70.6,45.7,29.91,NNE,29,3.5,3.5,41,0.00,SCT,,0.00,WeatherDisplay:10.37,2013-05-06 18:23:00,
2013-05-06 11:25:00,70.6,45.7,29.91,NE,41,2.3,2.3,41,0.00,SCT,,0.00,WeatherDisplay:10.37,2013-05-06 18:25:00,
2013-05-06 11:26:00,70.7,47.1,29.91,ENE,72,1.2,1.3,43,0.00,SCT,,0.00,WeatherDisplay:10.37,2013-05-06 18:26:00,
2013-05-06 11:27:00,70.7,47.1,29.91,ENE,71,1.2,1.3,43,0.00,SCT,,0.00,WeatherDisplay:10.37,2013-05-06 18:27:00,
2013-05-06 11:28:00,70.7,45.8,29.90,ENE,71,3.5,3.5,41,0.00,SCT,,0.00,WeatherDisplay:10.37,2013-05-06 18:28:00,
2013-05-06 11:29:00,70.6,45.1,29.90,NW,313,1.2,0.0,40,0.00,SCT,,0.00,WeatherDisplay:10.37,2013-05-06 18:29:00,
2013-05-06 11:32:00,70.6,45.7,29.91,ENE,66,1.2,1.2,41,0.00,SCT,,0.00,WeatherDisplay:10.37,2013-05-06 18:32:00,
2013-05-06 11:34:00,70.9,45.4,29.91,ENE,66,1.2,0.0,40,0.00,SCT,,0.00,WeatherDisplay:10.37,2013-05-06 18:34:00,
2013-05-06 11:35:00,71.0,45.5,29.91,ENE,66,0.0,0.0,40,0.00,SCT,,0.00,WeatherDisplay:10.37,2013-05-06 18:35:00,
2013-05-06 11:37:00,71.1,45.5,29.91,ENE,66,1.2,0.0,40,0.00,SCT,,0.00,WeatherDisplay:10.37,2013-05-06 18:37:00,
2013-05-06 11:38:00,71.1,45.5,29.90,ENE,66,1.2,0.0,40,0.00,SCT,,0.00,WeatherDisplay:10.37,2013-05-06 18:38:00,
2013-05-06 11:40:00,71.3,45.8,29.91,ENE,65,0.0,2.0,40,0.00,SCT,,0.00,WeatherDisplay:10.37,2013-05-06 18:40:00,
2013-05-06 11:41:00,71.8,46.2,29.91,SSE,152,1.2,1.2,40,0.00,SCT,,0.00,WeatherDisplay:10.37,2013-05-06 18:41:00,
2013-05-06 11:42:00,72.0,45.7,29.91,East,97,2.3,2.3,39,0.00,SCT,,0.00,WeatherDisplay:10.37,2013-05-06 18:42:00,
2013-05-06 11:43:00,72.2,46.5,29.91,NE,45,3.5,3.5,40,0.00,SCT,,0.00,WeatherDisplay:10.37,2013-05-06 18:43:00,
2013-05-06 11:46:00,72.3,46.6,29.91,ENE,71,5.8,5.8,40,0.00,SCT,,0.00,WeatherDisplay:10.37,2013-05-06 18:46:00,
2013-05-06 11:47:00,72.4,46.0,29.91,NE,46,4.0,4.0,39,0.00,SCT,,0.00,WeatherDisplay:10.37,2013-05-06 18:47:00,
2013-05-06 11:49:00,72.4,45.4,29.91,NNE,12,3.5,3.5,38,0.00,SCT,,0.00,WeatherDisplay:10.37,2013-05-06 18:49:00,
2013-05-06 11:52:00,72.5,46.1,29.91,South,182,3.5,3.5,39,0.00,SCT,,0.00,WeatherDisplay:10.37,2013-05-06 18:52:00,
2013-05-06 11:53:00,72.5,46.1,29.91,SSE,159,3.5,3.5,39,0.00,SCT,,0.00,WeatherDisplay:10.37,2013-05-06 18:53:00,
2013-05-06 11:55:00,72.3,45.3,29.91,North,357,4.6,4.6,38,0.00,SCT,,0.00,WeatherDisplay:10.37,2013-05-06 18:55:00,
2013-05-06 11:57:00,72.0,45.7,29.91,NNE,13,2.3,2.3,39,0.00,SCT,,0.00,WeatherDisplay:10.37,2013-05-06 18:57:00,
2013-05-06 11:58:00,71.9,45.6,29.91,NNE,13,2.3,2.3,39,0.00,SCT,,0.00,WeatherDisplay:10.37,2013-05-06 18:58:00,
2013-05-06 12:00:00,71.8,46.2,29.91,NE,50,2.0,5.0,40,0.00,SCT,,0.00,WeatherDisplay:10.37,2013-05-06 19:00:00,
2013-05-06 12:01:00,71.7,45.4,29.91,ESE,121,7.0,7.0,39,0.00,SCT,,0.00,WeatherDisplay:10.37,2013-05-06 19:01:00,
2013-05-06 12:03:00,71.7,46.1,29.91,ENE,59,3.5,3.5,40,0.00,SCT,,0.00,WeatherDisplay:10.37,2013-05-06 19:03:00,
2013-05-06 12:04:00,71.6,45.3,29.91,East,86,3.5,3.5,39,0.00,SCT,,0.00,WeatherDisplay:10.37,2013-05-06 19:04:00,
2013-05-06 12:05:00,71.6,45.3,29.91,ENE,76,3.5,3.5,39,0.00,SCT,,0.00,WeatherDisplay:10.37,2013-05-06 19:05:00,
2013-05-06 12:06:00,71.5,45.9,29.91,ENE,64,3.5,3.5,40,0.00,SCT,,0.00,WeatherDisplay:10.37,2013-05-06 19:06:00,
2013-05-06 12:09:00,71.5,45.9,29.91,East,79,5.8,5.8,40,0.00,SCT,,0.00,WeatherDisplay:10.37,2013-05-06 19:09:00,
2013-05-06 12:10:00,71.5,45.2,29.91,SE,124,3.5,3.5,39,0.00,SCT,,0.00,WeatherDisplay:10.37,2013-05-06 19:10:00,
2013-05-06 12:11:00,71.5,45.9,29.91,ESE,113,4.6,4.6,40,0.00,SCT,,0.00,WeatherDisplay:10.37,2013-05-06 19:11:00,
2013-05-06 12:14:00,71.6,46.0,29.91,NE,45,3.5,3.5,40,0.00,SCT,,0.00,WeatherDisplay:10.37,2013-05-06 19:14:00,
2013-05-06 12:15:00,71.7,46.1,29.90,NE,45,3.5,3.5,40,0.00,SCT,,0.00,WeatherDisplay:10.37,2013-05-06 19:15:00,
2013-05-06 12:16:00,71.6,46.0,29.91,SE,132,6.0,6.0,40,0.00,SCT,,0.00,WeatherDisplay:10.37,2013-05-06 19:16:00,
2013-05-06 12:19:00,71.6,46.0,29.91,East,81,4.0,4.0,40,0.00,SCT,,0.00,WeatherDisplay:10.37,2013-05-06 19:19:00,
2013-05-06 12:20:00,71.6,46.0,29.91,East,93,3.5,3.5,40,0.00,SCT,,0.00,WeatherDisplay:10.37,2013-05-06 19:20:00,
2013-05-06 12:22:00,71.7,46.1,29.91,ENE,75,3.5,3.5,40,0.00,SCT,,0.00,WeatherDisplay:10.37,2013-05-06 19:22:00,
2013-05-06 12:24:00,71.9,46.3,29.91,NE,51,4.6,4.6,40,0.00,SCT,,0.00,WeatherDisplay:10.37,2013-05-06 19:24:00,
2013-05-06 12:25:00,71.9,46.3,29.91,SE,131,4.6,4.6,40,0.00,SCT,,0.00,WeatherDisplay:10.37,2013-05-06 19:25:00,
2013-05-06 12:27:00,72.0,46.3,29.91,SSE,165,1.2,1.2,40,0.00,SCT,,0.00,WeatherDisplay:10.37,2013-05-06 19:27:00,
2013-05-06 12:28:00,72.1,46.4,29.90,SSE,165,1.2,1.2,40,0.00,SCT,,0.00,WeatherDisplay:10.37,2013-05-06 19:28:00,
2013-05-06 12:30:00,72.1,45.8,29.91,East,92,0.0,4.0,39,0.00,SCT,,0.00,WeatherDisplay:10.37,2013-05-06 19:30:00,
2013-05-06 12:31:00,72.1,45.8,29.91,NE,39,5.8,5.8,39,0.00,SCT,,0.00,WeatherDisplay:10.37,2013-05-06 19:31:00,
2013-05-06 12:32:00,72.0,45.7,29.91,North,360,5.8,5.8,39,0.00,SCT,,0.00,WeatherDisplay:10.37,2013-05-06 19:32:00,
2013-05-06 12:33:00,71.9,45.6,29.90,North,357,3.5,3.5,39,0.00,SCT,,0.00,WeatherDisplay:10.37,2013-05-06 19:33:00,
2013-05-06 12:36:00,71.8,46.2,29.91,NNW,342,5.8,5.8,40,0.00,SCT,,0.00,WeatherDisplay:10.37,2013-05-06 19:36:00,
2013-05-06 12:37:00,71.8,45.5,29.90,NNW,339,2.3,2.3,39,0.00,SCT,,0.00,WeatherDisplay:10.37,2013-05-06 19:37:00,
2013-05-06 12:39:00,71.8,46.2,29.90,NE,38,1.2,1.2,40,0.00,SCT,,0.00,WeatherDisplay:10.37,2013-05-06 19:39:00,
2013-05-06 12:41:00,71.9,45.6,29.91,NE,38,0.0,0.0,39,0.00,SCT,,0.00,WeatherDisplay:10.37,2013-05-06 19:41:00,
2013-05-06 12:43:00,72.1,45.8,29.90,NE,38,1.2,1.2,39,0.00,SCT,,0.00,WeatherDisplay:10.37,2013-05-06 19:43:00,
2013-05-06 12:44:00,72.3,46.6,29.90,NE,49,2.3,2.3,40,0.00,SCT,,0.00,WeatherDisplay:10.37,2013-05-06 19:44:00,
2013-05-06 12:46:00,72.6,45.5,29.91,NE,54,1.2,0.0,38,0.00,SCT,,0.00,WeatherDisplay:10.37,2013-05-06 19:46:00,
2013-05-06 12:48:00,72.7,44.9,29.90,North,359,2.3,2.3,37,0.00,SCT,,0.00,WeatherDisplay:10.37,2013-05-06 19:48:00,
2013-05-06 12:49:00,72.7,44.9,29.90,North,359,2.3,2.3,37,0.00,SCT,,0.00,WeatherDisplay:10.37,2013-05-06 19:49:00,
2013-05-06 12:52:00,72.7,44.9,29.90,NW,316,3.5,3.5,37,0.00,SCT,,0.00,WeatherDisplay:10.37,2013-05-06 19:52:00,
2013-05-06 12:54:00,72.6,44.8,29.90,North,10,2.3,2.3,37,0.00,SCT,,0.00,WeatherDisplay:10.37,2013-05-06 19:54:00,
2013-05-06 12:55:00,72.7,45.6,29.90,North,350,3.5,3.5,38,0.00,SCT,,0.00,WeatherDisplay:10.37,2013-05-06 19:55:00,
2013-05-06 12:58:00,72.6,44.8,29.90,North,7,4.6,4.6,37,0.00,SCT,,0.00,WeatherDisplay:10.37,2013-05-06 19:58:00,
2013-05-06 12:59:00,72.6,45.5,29.90,North,9,3.5,0.0,38,0.00,SCT,,0.00,WeatherDisplay:10.37,2013-05-06 19:59:00,
2013-05-06 13:01:00,72.7,47.0,29.90,North,9,1.2,1.2,40,0.00,SCT,,0.00,WeatherDisplay:10.37,2013-05-06 20:01:00,
2013-05-06 13:04:00,72.5,45.4,29.90,NNE,20,0.0,0.1,38,0.00,SCT,,0.00,WeatherDisplay:10.37,2013-05-06 20:04:00,
2013-05-06 13:05:00,72.4,46.0,29.90,NNE,21,1.2,1.2,39,0.00,SCT,,0.00,WeatherDisplay:10.37,2013-05-06 20:05:00,
2013-05-06 13:07:00,72.4,46.7,29.90,NW,323,3.0,3.0,40,0.00,SCT,,0.00,WeatherDisplay:10.37,2013-05-06 20:07:00,
2013-05-06 13:09:00,72.4,45.4,29.90,North,11,3.0,3.0,38,0.00,SCT,,0.00,WeatherDisplay:10.37,2013-05-06 20:09:00,
2013-05-06 13:10:00,72.3,45.3,29.90,NNW,346,3.5,3.5,38,0.00,SCT,,0.00,WeatherDisplay:10.37,2013-05-06 20:10:00,
2013-05-06 13:11:00,72.3,45.9,29.90,NNW,338,3.5,3.5,39,0.00,SCT,,0.00,WeatherDisplay:10.37,2013-05-06 20:11:00,
2013-05-06 13:12:00,72.2,45.9,29.90,North,357,3.0,3.0,39,0.00,SCT,,0.00,WeatherDisplay:10.37,2013-05-06 20:12:00,
2013-05-06 13:14:00,72.2,45.9,29.90,North,1,1.2,1.2,39,0.00,SCT,,0.00,WeatherDisplay:10.37,2013-05-06 20:14:00,
2013-05-06 13:16:00,72.1,45.8,29.90,NE,40,1.2,0.0,39,0.00,SCT,,0.00,WeatherDisplay:10.37,2013-05-06 20:16:00,
2013-05-06 13:18:00,72.1,46.4,29.91,ESE,108,2.0,2.0,40,0.00,SCT,,0.00,WeatherDisplay:10.37,2013-05-06 20:18:00,
2013-05-06 13:20:00,72.1,46.4,29.91,ENE,75,3.5,3.5,40,0.00,SCT,,0.00,WeatherDisplay:10.37,2013-05-06 20:20:00,
2013-05-06 13:21:00,72.1,47.1,29.91,East,86,3.5,3.5,41,0.00,SCT,,0.00,WeatherDisplay:10.37,2013-05-06 20:21:00,
2013-05-06 13:22:00,72.1,47.1,29.91,ESE,114,3.5,3.5,41,0.00,SCT,,0.00,WeatherDisplay:10.37,2013-05-06 20:22:00,
2013-05-06 13:24:00,72.1,47.7,29.90,SSW,201,2.3,2.3,42,0.00,SCT,,0.00,WeatherDisplay:10.37,2013-05-06 20:24:00,
2013-05-06 13:25:00,72.1,47.7,29.91,SSE,164,2.3,2.3,42,0.00,SCT,,0.00,WeatherDisplay:10.37,2013-05-06 20:25:00,
2013-05-06 13:26:00,72.4,48.6,29.90,ESE,112,3.5,3.5,43,0.00,SCT,,0.00,WeatherDisplay:10.37,2013-05-06 20:26:00,
2013-05-06 13:28:00,72.7,48.9,29.91,ESE,110,2.3,2.3,43,0.00,SCT,,0.00,WeatherDisplay:10.37,2013-05-06 20:28:00,
2013-05-06 13:30:00,73.1,49.3,29.91,East,90,4.6,4.6,43,0.00,SCT,,0.00,WeatherDisplay:10.37,2013-05-06 20:30:00,
2013-05-06 13:31:00,73.1,49.3,29.91,East,90,4.6,4.6,43,0.00,SCT,,0.00,WeatherDisplay:10.37,2013-05-06 20:31:00,
2013-05-06 13:35:00,74.1,49.5,29.90,SSW,210,2.3,2.3,42,0.00,SCT,,0.00,WeatherDisplay:10.37,2013-05-06 20:35:00,
2013-05-06 13:36:00,74.1,49.5,29.91,SE,130,2.3,2.3,42,0.00,SCT,,0.00,WeatherDisplay:10.37,2013-05-06 20:36:00,
2013-05-06 13:37:00,74.2,49.6,29.91,WSW,239,2.3,2.3,42,0.00,SCT,,0.00,WeatherDisplay:10.37,2013-05-06 20:37:00,
2013-05-06 13:38:00,74.4,49.2,29.91,SE,130,4.0,4.0,41,0.00,SCT,,0.00,WeatherDisplay:10.37,2013-05-06 20:38:00,
2013-05-06 13:42:00,75.1,49.1,29.91,South,184,3.5,3.5,40,0.00,SCT,,0.00,WeatherDisplay:10.37,2013-05-06 20:42:00,
2013-05-06 13:43:00,75.2,49.2,29.91,East,90,3.5,3.5,40,0.00,SCT,,0.00,WeatherDisplay:10.37,2013-05-06 20:43:00,
2013-05-06 13:47:00,75.5,48.8,29.91,ENE,73,3.5,3.5,39,0.00,SCT,,0.00,WeatherDisplay:10.37,2013-05-06 20:47:00,
2013-05-06 13:48:00,75.6,48.9,29.91,NNE,33,3.5,3.5,39,0.00,SCT,,0.00,WeatherDisplay:10.37,2013-05-06 20:48:00,
2013-05-06 13:49:00,75.7,49.0,29.91,ENE,76,3.5,3.5,39,0.00,SCT,,0.00,WeatherDisplay:10.37,2013-05-06 20:49:00,
2013-05-06 13:52:00,76.0,49.2,29.91,SSE,147,4.6,4.6,39,0.00,SCT,,0.00,WeatherDisplay:10.37,2013-05-06 20:52:00,
2013-05-06 13:53:00,76.1,49.3,29.91,ESE,114,4.6,4.6,39,0.00,SCT,,0.00,WeatherDisplay:10.37,2013-05-06 20:53:00,
2013-05-06 13:54:00,76.1,49.3,29.91,NNW,327,1.2,1.2,39,0.00,SCT,,0.00,WeatherDisplay:10.37,2013-05-06 20:54:00,
2013-05-06 13:58:00,75.8,49.1,29.91,SE,135,3.5,3.5,39,0.00,SCT,,0.00,WeatherDisplay:10.37,2013-05-06 20:58:00,
2013-05-06 13:59:00,75.9,48.5,29.91,SE,124,3.5,3.5,38,0.00,SCT,,0.00,WeatherDisplay:10.37,2013-05-06 20:59:00,
2013-05-06 14:00:00,75.9,48.5,29.91,SE,124,3.5,3.5,38,0.00,SCT,,0.00,WeatherDisplay:10.37,2013-05-06 21:00:00,
2013-05-06 14:03:00,75.6,48.9,29.91,South,170,4.6,4.6,39,0.00,SCT,,0.00,WeatherDisplay:10.37,2013-05-06 21:03:00,
2013-05-06 14:04:00,75.6,48.9,29.90,East,87,2.3,2.3,39,0.00,SCT,,0.00,WeatherDisplay:10.37,2013-05-06 21:04:00,
2013-05-06 14:05:00,75.5,49.5,29.91,East,79,3.5,3.5,40,0.00,SCT,,0.00,WeatherDisplay:10.37,2013-05-06 21:05:00,
2013-05-06 14:08:00,75.5,48.8,29.91,South,181,2.3,2.3,39,0.00,SCT,,0.00,WeatherDisplay:10.37,2013-05-06 21:08:00,
2013-05-06 14:09:00,75.4,48.7,29.90,South,182,2.3,2.3,39,0.00,SCT,,0.00,WeatherDisplay:10.37,2013-05-06 21:09:00,
2013-05-06 14:10:00,75.1,48.4,29.91,South,172,3.0,3.0,39,0.00,SCT,,0.00,WeatherDisplay:10.37,2013-05-06 21:10:00,
2013-05-06 14:12:00,75.0,49.0,29.91,SW,226,3.5,3.5,40,0.00,SCT,,0.00,WeatherDisplay:10.37,2013-05-06 21:12:00,
2013-05-06 14:14:00,74.7,49.4,29.91,NE,54,2.3,2.3,41,0.00,SCT,,0.00,WeatherDisplay:10.37,2013-05-06 21:14:00,
2013-05-06 14:15:00,74.6,48.7,29.90,SE,146,1.2,1.2,40,0.00,SCT,,0.00,WeatherDisplay:10.37,2013-05-06 21:15:00,
2013-05-06 14:17:00,74.5,48.6,29.91,SSE,154,1.2,1.2,40,0.00,SCT,,0.00,WeatherDisplay:10.37,2013-05-06 21:17:00,
2013-05-06 14:18:00,74.5,48.6,29.91,ESE,107,1.2,1.2,40,0.00,SCT,,0.00,WeatherDisplay:10.37,2013-05-06 21:18:00,
2013-05-06 14:20:00,74.2,49.0,29.91,SSW,210,1.2,0.0,41,0.00,SCT,,0.00,WeatherDisplay:10.37,2013-05-06 21:20:00,
2013-05-06 14:21:00,74.2,49.0,29.91,SSW,210,1.2,1.2,41,0.00,SCT,,0.00,WeatherDisplay:10.37,2013-05-06 21:21:00,
2013-05-06 14:23:00,74.3,49.7,29.91,SSE,149,2.3,2.3,42,0.00,SCT,,0.00,WeatherDisplay:10.37,2013-05-06 21:23:00,
2013-05-06 14:24:00,74.2,49.6,29.91,SE,131,2.3,2.3,42,0.00,SCT,,0.00,WeatherDisplay:10.37,2013-05-06 21:24:00,
2013-05-06 14:25:00,74.3,49.1,29.91,SE,125,1.2,1.2,41,0.00,SCT,,0.00,WeatherDisplay:10.37,2013-05-06 21:25:00,
2013-05-06 14:26:00,74.3,49.7,29.91,SE,126,1.2,1.2,42,0.00,SCT,,0.00,WeatherDisplay:10.37,2013-05-06 21:26:00,
2013-05-06 14:28:00,74.2,50.3,29.91,ESE,123,4.0,4.0,43,0.00,SCT,,0.00,WeatherDisplay:10.37,2013-05-06 21:28:00,
2013-05-06 14:29:00,74.0,51.3,29.91,NE,46,3.5,3.5,45,0.00,SCT,,0.00,WeatherDisplay:10.37,2013-05-06 21:29:00,
2013-05-06 14:31:00,73.9,53.0,29.91,SE,128,3.5,3.5,48,0.00,SCT,,0.00,WeatherDisplay:10.37,2013-05-06 21:31:00,
2013-05-06 14:33:00,73.6,52.1,29.91,SSE,150,4.6,4.6,47,0.00,SCT,,0.00,WeatherDisplay:10.37,2013-05-06 21:33:00,
2013-05-06 14:35:00,73.2,51.8,29.91,South,189,2.3,2.3,47,0.00,SCT,,0.00,WeatherDisplay:10.37,2013-05-06 21:35:00,
2013-05-06 14:36:00,72.8,52.5,29.91,SSW,192,1.2,1.2,49,0.00,SCT,,0.00,WeatherDisplay:10.37,2013-05-06 21:36:00,
2013-05-06 14:38:00,72.7,51.9,29.91,SSW,192,1.2,1.2,48,0.00,SCT,,0.00,WeatherDisplay:10.37,2013-05-06 21:38:00,
2013-05-06 14:40:00,72.5,51.7,29.91,SSW,193,1.2,0.0,48,0.00,SCT,,0.00,WeatherDisplay:10.37,2013-05-06 21:40:00,
2013-05-06 14:41:00,72.3,52.6,29.91,SSW,200,0.0,0.0,50,0.00,SCT,,0.00,WeatherDisplay:10.37,2013-05-06 21:41:00,
2013-05-06 14:42:00,72.4,52.7,29.91,ESE,122,0.0,0.0,50,0.00,SCT,,0.00,WeatherDisplay:10.37,2013-05-06 21:42:00,
2013-05-06 14:43:00,72.2,52.5,29.91,SE,131,1.0,0.0,50,0.00,SCT,,0.00,WeatherDisplay:10.37,2013-05-06 21:43:00,
2013-05-06 14:44:00,72.2,52.5,29.91,South,181,3.0,3.0,50,0.00,SCT,,0.00,WeatherDisplay:10.37,2013-05-06 21:44:00,
2013-05-06 14:46:00,72.1,50.8,29.91,SSW,197,3.5,3.5,47,0.00,SCT,,0.00,WeatherDisplay:10.37,2013-05-06 21:46:00,
2013-05-06 14:47:00,72.1,51.3,29.91,SE,143,1.2,1.2,48,0.00,SCT,,0.00,WeatherDisplay:10.37,2013-05-06 21:47:00,
2013-05-06 14:49:00,72.1,51.3,29.91,SE,141,1.2,0.0,48,0.00,SCT,,0.00,WeatherDisplay:10.37,2013-05-06 21:49:00,
2013-05-06 14:50:00,72.1,51.3,29.91,SE,127,2.3,2.3,48,0.00,SCT,,0.00,WeatherDisplay:10.37,2013-05-06 21:50:00,
2013-05-06 14:51:00,72.1,50.8,29.91,SE,127,0.0,0.0,47,0.00,SCT,,0.00,WeatherDisplay:10.37,2013-05-06 21:51:00,
2013-05-06 14:52:00,72.1,50.8,29.91,SE,127,0.0,0.0,47,0.00,SCT,,0.00,WeatherDisplay:10.37,2013-05-06 21:52:00,
2013-05-06 14:53:00,72.2,50.8,29.91,SE,136,1.2,1.2,47,0.00,SCT,,0.00,WeatherDisplay:10.37,2013-05-06 21:53:00,
2013-05-06 14:54:00,72.2,50.8,29.91,SE,136,3.5,3.5,47,0.00,SCT,,0.00,WeatherDisplay:10.37,2013-05-06 21:54:00,
2013-05-06 14:56:00,72.2,50.8,29.91,SE,136,1.2,1.2,47,0.00,SCT,,0.00,WeatherDisplay:10.37,2013-05-06 21:56:00,
2013-05-06 14:57:00,72.2,50.3,29.91,East,87,4.6,4.6,46,0.00,SCT,,0.00,WeatherDisplay:10.37,2013-05-06 21:57:00,
2013-05-06 14:58:00,72.2,50.3,29.91,SSE,166,4.6,4.6,46,0.00,SCT,,0.00,WeatherDisplay:10.37,2013-05-06 21:58:00,
2013-05-06 14:59:00,72.1,49.0,29.91,South,171,3.5,0.0,44,0.00,SCT,,0.00,WeatherDisplay:10.37,2013-05-06 21:59:00,
2013-05-06 15:01:00,72.1,49.0,29.91,SSE,156,1.2,0.0,44,0.00,SCT,,0.00,WeatherDisplay:10.37,2013-05-06 22:01:00,
2013-05-06 15:02:00,71.9,49.4,29.91,SE,141,2.0,2.0,45,0.00,SCT,,0.00,WeatherDisplay:10.37,2013-05-06 22:02:00,
2013-05-06 15:03:00,71.9,49.4,29.91,ESE,106,2.3,2.3,45,0.00,SCT,,0.00,WeatherDisplay:10.37,2013-05-06 22:03:00,
2013-05-06 15:04:00,71.9,49.4,29.91,ESE,106,2.3,2.3,45,0.00,SCT,,0.00,WeatherDisplay:10.37,2013-05-06 22:04:00,
2013-05-06 15:06:00,71.9,49.4,29.91,ENE,60,1.2,1.2,45,0.00,SCT,,0.00,WeatherDisplay:10.37,2013-05-06 22:06:00,
2013-05-06 15:08:00,71.9,50.6,29.91,ENE,78,1.2,1.2,47,0.00,SCT,,0.00,WeatherDisplay:10.37,2013-05-06 22:08:00,
2013-05-06 15:09:00,71.9,50.6,29.91,ENE,78,1.2,1.2,47,0.00,SCT,,0.00,WeatherDisplay:10.37,2013-05-06 22:09:00,
2013-05-06 15:11:00,71.7,51.5,29.91,East,97,0.0,0.8,49,0.00,SCT,,0.00,WeatherDisplay:10.37,2013-05-06 22:11:00,
2013-05-06 15:12:00,71.7,51.5,29.91,East,97,1.0,1.0,49,0.00,SCT,,0.00,WeatherDisplay:10.37,2013-05-06 22:12:00,
2013-05-06 15:13:00,71.5,51.9,29.91,SE,137,5.8,5.8,50,0.00,SCT,,0.00,WeatherDisplay:10.37,2013-05-06 22:13:00,
2013-05-06 15:14:00,71.4,52.3,29.91,SE,137,2.3,0.0,51,0.00,SCT,,0.00,WeatherDisplay:10.37,2013-05-06 22:14:00,
2013-05-06 15:15:00,71.4,52.9,29.91,SE,137,0.0,0.0,52,0.00,SCT,,0.00,WeatherDisplay:10.37,2013-05-06 22:15:00,
2013-05-06 15:17:00,71.3,53.8,29.91,SE,130,1.0,1.0,54,0.00,SCT,,0.00,WeatherDisplay:10.37,2013-05-06 22:17:00,
2013-05-06 15:19:00,71.0,54.0,29.91,ESE,114,3.5,3.5,55,0.00,SCT,,0.00,WeatherDisplay:10.37,2013-05-06 22:19:00,
2013-05-06 15:21:00,70.6,54.1,29.91,East,84,3.5,3.5,56,0.00,SCT,,0.00,WeatherDisplay:10.37,2013-05-06 22:21:00,
2013-05-06 15:22:00,70.5,54.0,29.91,ENE,78,3.5,3.5,56,0.00,SCT,,0.00,WeatherDisplay:10.37,2013-05-06 22:22:00,
2013-05-06 15:24:00,70.3,54.8,29.91,ENE,78,0.0,0.0,58,0.00,SCT,,0.00,WeatherDisplay:10.37,2013-05-06 22:24:00,
2013-05-06 15:26:00,70.3,54.8,29.91,East,95,0.0,0.8,58,0.00,SCT,,0.00,WeatherDisplay:10.37,2013-05-06 22:26:00,
2013-05-06 15:27:00,70.3,54.8,29.91,East,79,2.3,2.3,58,0.00,SCT,,0.00,WeatherDisplay:10.37,2013-05-06 22:27:00,
2013-05-06 15:28:00,70.2,54.7,29.91,East,79,0.0,0.0,58,0.00,SCT,,0.00,WeatherDisplay:10.37,2013-05-06 22:28:00,
2013-05-06 15:30:00,70.2,54.7,29.91,ENE,57,2.3,2.3,58,0.00,SCT,,0.00,WeatherDisplay:10.37,2013-05-06 22:30:00,
2013-05-06 15:32:00,70.2,55.2,29.91,SE,128,2.3,2.3,59,0.00,SCT,,0.00,WeatherDisplay:10.37,2013-05-06 22:32:00,
2013-05-06 15:33:00,70.3,54.3,29.91,ENE,59,3.5,3.5,57,0.00,SCT,,0.00,WeatherDisplay:10.37,2013-05-06 22:33:00,
2013-05-06 15:36:00,70.6,55.1,29.91,ENE,61,0.0,0.0,58,0.00,SCT,,0.00,WeatherDisplay:10.37,2013-05-06 22:36:00,
2013-05-06 15:37:00,70.7,55.2,29.91,SE,142,3.5,3.5,58,0.00,SCT,,0.00,WeatherDisplay:10.37,2013-05-06 22:37:00,
2013-05-06 15:38:00,70.9,54.4,29.91,ENE,69,3.5,3.5,56,0.00,SCT,,0.00,WeatherDisplay:10.37,2013-05-06 22:38:00,
2013-05-06 15:39:00,71.0,54.5,29.91,ENE,64,3.5,3.5,56,0.00,SCT,,0.00,WeatherDisplay:10.37,2013-05-06 22:39:00,
2013-05-06 15:40:00,71.1,55.1,29.91,ENE,72,3.5,3.5,57,0.00,SCT,,0.00,WeatherDisplay:10.37,2013-05-06 22:40:00,
2013-05-06 15:41:00,71.5,55.5,29.91,ENE,63,2.3,2.3,57,0.00,SCT,,0.00,WeatherDisplay:10.37,2013-05-06 22:41:00,
2013-05-06 15:42:00,71.6,55.1,29.91,East,94,1.2,1.2,56,0.00,SCT,,0.00,WeatherDisplay:10.37,2013-05-06 22:42:00,
2013-05-06 15:44:00,71.7,55.2,29.91,ENE,58,2.3,2.3,56,0.00,SCT,,0.00,WeatherDisplay:10.37,2013-05-06 22:44:00,
2013-05-06 15:45:00,71.9,54.9,29.91,East,100,1.2,1.2,55,0.00,SCT,,0.01,WeatherDisplay:10.37,2013-05-06 22:45:00,
2013-05-06 15:47:00,72.0,54.9,29.91,East,92,1.2,1.2,55,0.01,RA,,0.01,WeatherDisplay:10.37,2013-05-06 22:47:00,
2013-05-06 15:50:00,71.9,53.9,29.91,ENE,77,0.0,4.0,53,0.01,RA,,0.01,WeatherDisplay:10.37,2013-05-06 22:50:00,
2013-05-06 15:51:00,71.9,53.8,29.90,SE,136,3.5,3.5,53,0.01,RA,,0.01,WeatherDisplay:10.37,2013-05-06 22:51:00,
2013-05-06 15:52:00,71.8,54.3,29.91,SE,135,3.5,3.5,54,0.01,RA,,0.01,WeatherDisplay:10.37,2013-05-06 22:52:00,
2013-05-06 15:54:00,71.8,54.3,29.91,ESE,117,3.5,3.5,54,0.01,RA,,0.01,WeatherDisplay:10.37,2013-05-06 22:54:00,
2013-05-06 15:55:00,71.8,54.3,29.91,ESE,116,1.0,4.0,54,0.01,RA,,0.01,WeatherDisplay:10.37,2013-05-06 22:55:00,
2013-05-06 15:57:00,71.7,53.7,29.91,SE,129,0.0,0.0,53,0.01,SCT,,0.01,WeatherDisplay:10.37,2013-05-06 22:57:00,
2013-05-06 15:58:00,71.7,54.2,29.90,ESE,103,2.0,2.0,54,0.01,SCT,,0.01,WeatherDisplay:10.37,2013-05-06 22:58:00,
2013-05-06 15:59:00,71.7,53.7,29.90,East,100,2.3,2.3,53,0.01,SCT,,0.01,WeatherDisplay:10.37,2013-05-06 22:59:00,
2013-05-06 16:00:00,71.7,53.1,29.90,East,89,1.2,1.2,52,0.01,SCT,,0.01,WeatherDisplay:10.37,2013-05-06 23:00:00,
2013-05-06 16:02:00,71.6,53.0,29.90,East,83,2.3,2.3,52,0.01,SCT,,0.01,WeatherDisplay:10.37,2013-05-06 23:02:00,
2013-05-06 16:03:00,71.5,52.4,29.90,East,83,1.2,0.0,51,0.01,SCT,,0.01,WeatherDisplay:10.37,2013-05-06 23:03:00,
2013-05-06 16:04:00,71.5,51.9,29.90,East,83,0.0,0.0,50,0.01,SCT,,0.01,WeatherDisplay:10.37,2013-05-06 23:04:00,
2013-05-06 16:05:00,71.3,51.7,29.90,South,178,0.0,0.3,50,0.01,SCT,,0.01,WeatherDisplay:10.37,2013-05-06 23:05:00,
2013-05-06 16:07:00,71.1,51.5,29.90,South,178,0.0,0.0,50,0.01,SCT,,0.01,WeatherDisplay:10.37,2013-05-06 23:07:00,
2013-05-06 16:08:00,71.0,52.0,29.90,South,178,0.0,0.0,51,0.01,SCT,,0.01,WeatherDisplay:10.37,2013-05-06 23:08:00,
2013-05-06 16:09:00,70.9,51.9,29.90,South,178,0.0,0.0,51,0.01,SCT,,0.01,WeatherDisplay:10.37,2013-05-06 23:09:00,
2013-05-06 16:10:00,70.9,51.9,29.90,South,178,0.0,0.0,51,0.01,SCT,,0.01,WeatherDisplay:10.37,2013-05-06 23:10:00,
2013-05-06 16:12:00,70.9,51.3,29.90,South,178,1.2,1.2,50,0.01,SCT,,0.01,WeatherDisplay:10.37,2013-05-06 23:12:00,
2013-05-06 16:14:00,71.0,52.0,29.90,South,178,0.0,0.0,51,0.01,SCT,,0.01,WeatherDisplay:10.37,2013-05-06 23:14:00,
2013-05-06 16:15:00,71.0,52.0,29.90,South,178,0.0,1.0,51,0.00,SCT,,0.01,WeatherDisplay:10.37,2013-05-06 23:15:00,
2013-05-06 16:18:00,71.0,50.3,29.90,South,178,0.0,0.0,48,0.01,SCT,,0.01,WeatherDisplay:10.37,2013-05-06 23:18:00,
2013-05-06 16:19:00,71.0,50.3,29.90,South,178,0.0,0.0,48,0.01,SCT,,0.01,WeatherDisplay:10.37,2013-05-06 23:19:00,
2013-05-06 16:20:00,70.8,49.6,29.90,South,178,0.0,0.0,47,0.01,SCT,,0.01,WeatherDisplay:10.37,2013-05-06 23:20:00,
2013-05-06 16:22:00,70.6,49.4,29.90,South,178,0.0,0.0,47,0.01,SCT,,0.01,WeatherDisplay:10.37,2013-05-06 23:22:00,
2013-05-06 16:24:00,70.5,50.4,29.90,South,178,1.2,0.0,49,0.01,SCT,,0.01,WeatherDisplay:10.37,2013-05-06 23:24:00,
2013-05-06 16:25:00,70.5,50.4,29.90,South,178,0.0,0.0,49,0.01,SCT,,0.01,WeatherDisplay:10.37,2013-05-06 23:25:00,
2013-05-06 16:26:00,70.5,50.4,29.90,South,178,0.0,0.0,49,0.01,SCT,,0.01,WeatherDisplay:10.37,2013-05-06 23:26:00,
2013-05-06 16:27:00,70.3,49.7,29.90,South,178,0.0,0.0,48,0.01,SCT,,0.01,WeatherDisplay:10.37,2013-05-06 23:27:00,
2013-05-06 16:29:00,70.3,50.8,29.90,South,178,0.0,0.0,50,0.01,SCT,,0.01,WeatherDisplay:10.37,2013-05-06 23:29:00,
2013-05-06 16:30:00,70.3,50.8,29.90,South,178,0.0,0.0,50,0.00,SCT,,0.01,WeatherDisplay:10.37,2013-05-06 23:30:00,
2013-05-06 16:31:00,70.4,50.9,29.90,South,178,1.2,1.2,50,0.01,SCT,,0.01,WeatherDisplay:10.37,2013-05-06 23:31:00,
2013-05-06 16:32:00,70.4,50.9,29.90,South,178,1.2,1.2,50,0.01,SCT,,0.01,WeatherDisplay:10.37,2013-05-06 23:32:00,
2013-05-06 16:33:00,70.5,50.4,29.90,South,178,1.2,0.0,49,0.01,SCT,,0.01,WeatherDisplay:10.37,2013-05-06 23:33:00,
2013-05-06 16:35:00,70.5,51.0,29.90,South,178,0.0,0.0,50,0.01,SCT,,0.01,WeatherDisplay:10.37,2013-05-06 23:35:00,
2013-05-06 16:37:00,70.6,52.6,29.90,South,178,0.0,0.0,53,0.01,SCT,,0.01,WeatherDisplay:10.37,2013-05-06 23:37:00,
2013-05-06 16:39:00,70.6,53.1,29.90,South,178,2.3,2.3,54,0.01,SCT,,0.01,WeatherDisplay:10.37,2013-05-06 23:39:00,
2013-05-06 16:40:00,70.6,53.1,29.90,South,178,2.3,2.3,54,0.01,SCT,,0.01,WeatherDisplay:10.37,2013-05-06 23:40:00,
2013-05-06 16:41:00,70.5,52.5,29.90,South,178,0.0,0.0,53,0.01,SCT,,0.01,WeatherDisplay:10.37,2013-05-06 23:41:00,
2013-05-06 16:43:00,70.5,53.1,29.90,South,178,0.0,0.0,54,0.01,SCT,,0.01,WeatherDisplay:10.37,2013-05-06 23:43:00,
2013-05-06 16:45:00,70.4,53.5,29.90,South,178,0.0,0.0,55,0.01,SCT,,0.01,WeatherDisplay:10.37,2013-05-06 23:45:00,
2013-05-06 16:46:00,70.4,51.9,29.90,South,178,0.0,0.0,52,0.01,SCT,,0.01,WeatherDisplay:10.37,2013-05-06 23:46:00,
2013-05-06 16:47:00,70.4,53.0,29.90,South,178,0.0,0.0,54,0.00,SCT,,0.01,WeatherDisplay:10.37,2013-05-06 23:47:00,
2013-05-06 16:48:00,70.4,53.0,29.90,South,178,0.0,0.0,54,0.00,SCT,,0.01,WeatherDisplay:10.37,2013-05-06 23:48:00,
2013-05-06 16:50:00,70.3,51.8,29.90,South,178,0.0,0.0,52,0.00,SCT,,0.01,WeatherDisplay:10.37,2013-05-06 23:50:00,
2013-05-06 16:51:00,70.4,52.4,29.90,South,178,0.0,0.0,53,0.00,SCT,,0.01,WeatherDisplay:10.37,2013-05-06 23:51:00,
2013-05-06 16:52:00,70.3,51.3,29.90,South,178,0.0,0.0,51,0.00,SCT,,0.01,WeatherDisplay:10.37,2013-05-06 23:52:00,
2013-05-06 16:54:00,70.3,51.3,29.90,South,178,0.0,0.0,51,0.00,SCT,,0.01,WeatherDisplay:10.37,2013-05-06 23:54:00,
2013-05-06 16:55:00,70.3,50.2,29.90,South,178,0.0,0.0,49,0.00,SCT,,0.01,WeatherDisplay:10.37,2013-05-06 23:55:00,
2013-05-06 16:56:00,70.3,50.8,29.90,South,178,0.0,0.0,50,0.00,SCT,,0.01,WeatherDisplay:10.37,2013-05-06 23:56:00,
2013-05-06 16:58:00,70.2,51.7,29.90,South,178,0.0,0.0,52,0.00,SCT,,0.01,WeatherDisplay:10.37,2013-05-06 23:58:00,
2013-05-06 16:59:00,70.2,52.3,29.90,South,178,1.2,1.2,53,0.00,SCT,,0.01,WeatherDisplay:10.37,2013-05-06 23:59:00,
2013-05-06 17:01:00,70.1,53.2,29.90,South,178,0.0,0.0,55,0.00,SCT,,0.01,WeatherDisplay:10.37,2013-05-07 00:01:00,
2013-05-06 17:02:00,70.2,53.8,29.90,South,178,0.0,0.0,56,0.00,SCT,,0.01,WeatherDisplay:10.37,2013-05-07 00:02:00,
2013-05-06 17:03:00,70.1,53.7,29.90,South,178,1.2,1.2,56,0.00,SCT,,0.01,WeatherDisplay:10.37,2013-05-07 00:03:00,
2013-05-06 17:04:00,70.1,53.7,29.90,South,178,1.2,1.2,56,0.00,SCT,,0.01,WeatherDisplay:10.37,2013-05-07 00:04:00,
2013-05-06 17:07:00,70.1,53.7,29.90,South,178,0.0,0.0,56,0.00,SCT,,0.01,WeatherDisplay:10.37,2013-05-07 00:07:00,
2013-05-06 17:08:00,70.1,53.2,29.90,South,178,0.0,0.0,55,0.00,SCT,,0.01,WeatherDisplay:10.37,2013-05-07 00:08:00,
2013-05-06 17:09:00,70.1,52.7,29.90,South,178,0.0,0.0,54,0.00,SCT,,0.01,WeatherDisplay:10.37,2013-05-07 00:09:00,
2013-05-06 17:12:00,70.1,53.2,29.90,South,178,0.0,0.0,55,0.00,SCT,,0.01,WeatherDisplay:10.37,2013-05-07 00:12:00,
2013-05-06 17:13:00,70.1,52.7,29.90,South,178,0.0,0.0,54,0.00,SCT,,0.01,WeatherDisplay:10.37,2013-05-07 00:13:00,
2013-05-06 17:14:00,70.1,52.2,29.90,South,178,0.0,0.0,53,0.00,SCT,,0.01,WeatherDisplay:10.37,2013-05-07 00:14:00,
2013-05-06 17:16:00,70.0,52.1,29.90,SE,141,1.2,1.2,53,0.00,SCT,,0.01,WeatherDisplay:10.37,2013-05-07 00:16:00,
2013-05-06 17:18:00,69.9,52.5,29.90,SE,141,1.2,0.0,54,0.00,SCT,,0.01,WeatherDisplay:10.37,2013-05-07 00:18:00,
2013-05-06 17:19:00,69.9,52.0,29.90,SE,141,0.0,0.0,53,0.00,SCT,,0.01,WeatherDisplay:10.37,2013-05-07 00:19:00,
2013-05-06 17:20:00,69.9,51.5,29.90,SE,141,0.0,0.0,52,0.00,SCT,,0.01,WeatherDisplay:10.37,2013-05-07 00:20:00,
2013-05-06 17:21:00,70.0,52.6,29.90,SE,141,2.0,2.0,54,0.00,SCT,,0.01,WeatherDisplay:10.37,2013-05-07 00:21:00,
2013-05-06 17:24:00,70.0,51.6,29.90,SE,141,0.0,0.0,52,0.00,SCT,,0.01,WeatherDisplay:10.37,2013-05-07 00:24:00,
2013-05-06 17:25:00,70.0,52.1,29.91,SE,140,0.0,0.0,53,0.00,SCT,,0.01,WeatherDisplay:10.37,2013-05-07 00:25:00,
2013-05-06 17:27:00,70.0,52.6,29.90,SE,140,0.0,0.1,54,0.00,SCT,,0.01,WeatherDisplay:10.37,2013-05-07 00:27:00,
2013-05-06 17:29:00,70.0,51.6,29.90,SE,138,1.2,1.2,52,0.00,SCT,,0.01,WeatherDisplay:10.37,2013-05-07 00:29:00,
2013-05-06 17:30:00,70.0,51.6,29.90,SE,138,1.2,1.2,52,0.00,SCT,,0.01,WeatherDisplay:10.37,2013-05-07 00:30:00,
2013-05-06 17:32:00,69.9,50.9,29.90,SE,138,0.0,0.1,51,0.00,SCT,,0.01,WeatherDisplay:10.37,2013-05-07 00:32:00,
2013-05-06 17:34:00,69.9,50.9,29.90,South,172,0.0,0.0,51,0.00,SCT,,0.01,WeatherDisplay:10.37,2013-05-07 00:34:00,
2013-05-06 17:35:00,69.9,50.9,29.90,South,172,0.0,0.0,51,0.00,SCT,,0.01,WeatherDisplay:10.37,2013-05-07 00:35:00,
2013-05-06 17:36:00,69.9,50.9,29.90,South,177,1.0,1.0,51,0.00,SCT,,0.01,WeatherDisplay:10.37,2013-05-07 00:36:00,
2013-05-06 17:37:00,69.9,50.4,29.90,SE,133,2.3,2.3,50,0.00,SCT,,0.01,WeatherDisplay:10.37,2013-05-07 00:37:00,
2013-05-06 17:40:00,69.9,50.4,29.90,South,179,0.0,0.0,50,0.00,SCT,,0.01,WeatherDisplay:10.37,2013-05-07 00:40:00,
2013-05-06 17:41:00,69.8,50.3,29.90,South,179,0.0,0.0,50,0.00,SCT,,0.01,WeatherDisplay:10.37,2013-05-07 00:41:00,
2013-05-06 17:44:00,69.6,49.6,29.90,SW,217,3.5,0.0,49,0.00,SCT,,0.01,WeatherDisplay:10.37,2013-05-07 00:44:00,
2013-05-06 17:45:00,69.5,49.5,29.90,SW,216,1.2,1.2,49,0.00,SCT,,0.01,WeatherDisplay:10.37,2013-05-07 00:45:00,
2013-05-06 17:47:00,69.4,49.4,29.90,South,180,1.0,1.0,49,0.00,SCT,,0.01,WeatherDisplay:10.37,2013-05-07 00:47:00,
2013-05-06 17:49:00,69.3,49.9,29.90,South,184,3.5,3.5,50,0.00,SCT,,0.01,WeatherDisplay:10.37,2013-05-07 00:49:00,
2013-05-06 17:50:00,69.3,49.9,29.91,South,184,1.2,1.2,50,0.00,SCT,,0.01,WeatherDisplay:10.37,2013-05-07 00:50:00,
2013-05-06 17:51:00,69.4,49.4,29.90,South,184,1.2,0.0,49,0.00,SCT,,0.01,WeatherDisplay:10.37,2013-05-07 00:51:00,
2013-05-06 17:54:00,69.3,48.8,29.91,SSE,152,1.2,0.0,48,0.00,SCT,,0.01,WeatherDisplay:10.37,2013-05-07 00:54:00,
2013-05-06 17:55:00,69.2,49.2,29.91,South,182,0.0,1.0,49,0.00,SCT,,0.01,WeatherDisplay:10.37,2013-05-07 00:55:00,
2013-05-06 17:56:00,69.1,49.1,29.91,SSE,153,0.0,0.0,49,0.00,SCT,,0.01,WeatherDisplay:10.37,2013-05-07 00:56:00,
2013-05-06 17:59:00,69.1,49.1,29.91,SSE,154,1.2,0.0,49,0.00,SCT,,0.01,WeatherDisplay:10.37,2013-05-07 00:59:00,
2013-05-06 18:01:00,69.1,49.1,29.91,SSW,194,1.2,0.0,49,0.00,SCT,,0.01,WeatherDisplay:10.37,2013-05-07 01:01:00,
2013-05-06 18:03:00,69.0,48.5,29.91,SSW,194,3.5,3.5,48,0.00,SCT,,0.01,WeatherDisplay:10.37,2013-05-07 01:03:00,
2013-05-06 18:04:00,68.9,48.9,29.91,SSW,194,3.5,3.5,49,0.00,SCT,,0.01,WeatherDisplay:10.37,2013-05-07 01:04:00,
2013-05-06 18:06:00,68.9,48.9,29.91,SE,139,1.2,1.2,49,0.00,SCT,,0.01,WeatherDisplay:10.37,2013-05-07 01:06:00,
2013-05-06 18:07:00,68.9,48.9,29.91,SE,135,1.2,0.0,49,0.00,SCT,,0.01,WeatherDisplay:10.37,2013-05-07 01:07:00,
2013-05-06 18:09:00,68.8,48.9,29.91,SE,135,0.0,0.0,49,0.00,SCT,,0.01,WeatherDisplay:10.37,2013-05-07 01:09:00,
2013-05-06 18:10:00,68.9,48.9,29.91,SE,135,0.0,0.0,49,0.00,SCT,,0.01,WeatherDisplay:10.37,2013-05-07 01:10:00,
2013-05-06 18:11:00,68.7,48.8,29.91,SSW,192,2.3,2.3,49,0.00,SCT,,0.01,WeatherDisplay:10.37,2013-05-07 01:11:00,
2013-05-06 18:12:00,68.7,48.2,29.91,SSW,192,2.3,2.3,48,0.00,SCT,,0.01,WeatherDisplay:10.37,2013-05-07 01:12:00,
2013-05-06 18:14:00,68.4,48.5,29.91,SSE,152,3.5,3.5,49,0.00,SCT,,0.01,WeatherDisplay:10.37,2013-05-07 01:14:00,
2013-05-06 18:15:00,68.4,48.5,29.91,SSE,154,1.0,3.0,49,0.00,SCT,,0.01,WeatherDisplay:10.37,2013-05-07 01:15:00,
2013-05-06 18:16:00,68.2,48.8,29.91,SSW,202,1.2,0.0,50,0.00,SCT,,0.01,WeatherDisplay:10.37,2013-05-07 01:16:00,
2013-05-06 18:18:00,68.2,48.8,29.91,WSW,238,1.0,1.0,50,0.00,SCT,,0.01,WeatherDisplay:10.37,2013-05-07 01:18:00,
2013-05-06 18:20:00,68.1,48.8,29.91,WSW,241,3.5,3.5,50,0.00,SCT,,0.01,WeatherDisplay:10.37,2013-05-07 01:20:00,
2013-05-06 18:22:00,68.0,48.7,29.91,SE,126,3.5,3.5,50,0.00,SCT,,0.01,WeatherDisplay:10.37,2013-05-07 01:22:00,
2013-05-06 18:23:00,67.9,48.6,29.90,ESE,109,3.5,3.5,50,0.00,SCT,,0.01,WeatherDisplay:10.37,2013-05-07 01:23:00,
2013-05-06 18:25:00,67.9,48.6,29.91,SW,227,1.2,0.0,50,0.00,SCT,,0.01,WeatherDisplay:10.37,2013-05-07 01:25:00,
2013-05-06 18:26:00,67.9,48.6,29.91,SSW,213,1.0,1.0,50,0.00,SCT,,0.01,WeatherDisplay:10.37,2013-05-07 01:26:00,
2013-05-06 18:27:00,67.9,48.6,29.91,SSW,206,2.3,2.3,50,0.00,SCT,,0.01,WeatherDisplay:10.37,2013-05-07 01:27:00,
2013-05-06 18:28:00,67.9,49.1,29.91,SSW,206,2.3,2.3,51,0.00,SCT,,0.01,WeatherDisplay:10.37,2013-05-07 01:28:00,
2013-05-06 18:30:00,67.8,49.0,29.91,SSE,163,1.2,1.2,51,0.00,SCT,,0.01,WeatherDisplay:10.37,2013-05-07 01:30:00,
2013-05-06 18:31:00,67.8,49.0,29.91,SSW,207,2.3,2.3,51,0.00,SCT,,0.01,WeatherDisplay:10.37,2013-05-07 01:31:00,
2013-05-06 18:33:00,67.8,49.0,29.91,SSW,207,2.3,0.0,51,0.00,SCT,,0.01,WeatherDisplay:10.37,2013-05-07 01:33:00,
2013-05-06 18:35:00,67.6,48.8,29.91,SSW,207,0.0,0.0,51,0.00,SCT,,0.01,WeatherDisplay:10.37,2013-05-07 01:35:00,
2013-05-06 18:36:00,67.7,49.4,29.91,SSW,207,0.0,0.0,52,0.00,SCT,,0.01,WeatherDisplay:10.37,2013-05-07 01:36:00,
2013-05-06 18:38:00,67.6,49.3,29.91,SSE,154,5.8,5.8,52,0.00,SCT,,0.01,WeatherDisplay:10.37,2013-05-07 01:38:00,
2013-05-06 18:39:00,67.6,49.3,29.90,SSW,197,2.3,2.3,52,0.00,SCT,,0.01,WeatherDisplay:10.37,2013-05-07 01:39:00,
2013-05-06 18:40:00,67.5,49.3,29.90,WSW,237,5.8,5.8,52,0.00,SCT,,0.01,WeatherDisplay:10.37,2013-05-07 01:40:00,
2013-05-06 18:41:00,67.4,49.2,29.90,SSE,159,2.3,2.3,52,0.00,SCT,,0.01,WeatherDisplay:10.37,2013-05-07 01:41:00,
2013-05-06 18:42:00,67.4,49.2,29.90,SSE,158,2.3,2.3,52,0.00,SCT,,0.01,WeatherDisplay:10.37,2013-05-07 01:42:00,
2013-05-06 18:43:00,67.3,49.1,29.90,ESE,115,1.2,1.2,52,0.00,SCT,,0.01,WeatherDisplay:10.37,2013-05-07 01:43:00,
2013-05-06 18:45:00,67.3,49.1,29.90,SSW,192,0.0,4.0,52,0.00,SCT,,0.01,WeatherDisplay:10.37,2013-05-07 01:45:00,
2013-05-06 18:46:00,67.4,49.2,29.90,SSW,193,1.2,0.0,52,0.00,SCT,,0.01,WeatherDisplay:10.37,2013-05-07 01:46:00,
2013-05-06 18:47:00,67.3,49.1,29.90,SSW,202,2.0,0.0,52,0.00,SCT,,0.01,WeatherDisplay:10.37,2013-05-07 01:47:00,
2013-05-06 18:48:00,67.3,49.1,29.91,SSE,150,1.2,1.2,52,0.00,SCT,,0.01,WeatherDisplay:10.37,2013-05-07 01:48:00,
2013-05-06 18:50:00,67.3,49.1,29.90,South,177,0.0,3.0,52,0.00,SCT,,0.01,WeatherDisplay:10.37,2013-05-07 01:50:00,
2013-05-06 18:51:00,67.4,49.2,29.91,SSW,204,2.3,2.3,52,0.00,SCT,,0.01,WeatherDisplay:10.37,2013-05-07 01:51:00,
2013-05-06 18:52:00,67.4,49.2,29.91,SSE,162,1.2,1.2,52,0.00,SCT,,0.01,WeatherDisplay:10.37,2013-05-07 01:52:00,
2013-05-06 18:53:00,67.3,49.1,29.91,SSE,162,1.2,0.0,52,0.00,SCT,,0.01,WeatherDisplay:10.37,2013-05-07 01:53:00,
2013-05-06 18:54:00,67.3,49.1,29.91,SSE,162,1.2,0.0,52,0.00,SCT,,0.01,WeatherDisplay:10.37,2013-05-07 01:54:00,
2013-05-06 18:55:00,67.3,49.1,29.90,SSE,165,3.5,3.5,52,0.00,SCT,,0.01,WeatherDisplay:10.37,2013-05-07 01:55:00,
2013-05-06 18:56:00,67.1,48.9,29.91,ESE,122,2.3,2.3,52,0.00,SCT,,0.01,WeatherDisplay:10.37,2013-05-07 01:56:00,
2013-05-06 18:58:00,67.1,48.9,29.91,WSW,254,1.2,1.2,52,0.00,SCT,,0.01,WeatherDisplay:10.37,2013-05-07 01:58:00,
2013-05-06 18:59:00,67.1,49.4,29.90,SSE,151,1.2,1.2,53,0.00,SCT,,0.01,WeatherDisplay:10.37,2013-05-07 01:59:00,
2013-05-06 19:01:00,67.1,49.4,29.91,SSE,151,0.0,0.0,53,0.00,SCT,,0.01,WeatherDisplay:10.37,2013-05-07 02:01:00,
2013-05-06 19:02:00,67.1,49.4,29.91,SE,145,1.0,1.0,53,0.00,SCT,,0.01,WeatherDisplay:10.37,2013-05-07 02:02:00,
2013-05-06 19:04:00,67.1,48.9,29.91,South,186,2.3,2.3,52,0.00,SCT,,0.01,WeatherDisplay:10.37,2013-05-07 02:04:00,
2013-05-06 19:09:00,67.1,48.9,29.91,SW,226,3.5,3.5,52,0.00,SCT,,0.01,WeatherDisplay:10.37,2013-05-07 02:09:00,
2013-05-06 19:10:00,67.1,48.4,29.91,SW,226,3.5,3.5,51,0.00,SCT,,0.01,WeatherDisplay:10.37,2013-05-07 02:10:00,
2013-05-06 19:13:00,67.0,48.3,29.91,South,189,1.2,1.2,51,0.00,SCT,,0.01,WeatherDisplay:10.37,2013-05-07 02:13:00,
2013-05-06 19:14:00,67.0,48.3,29.91,South,190,2.3,2.3,51,0.00,SCT,,0.01,WeatherDisplay:10.37,2013-05-07 02:14:00,
2013-05-06 19:15:00,67.0,48.3,29.91,SSW,204,1.0,1.0,51,0.00,SCT,,0.01,WeatherDisplay:10.37,2013-05-07 02:15:00,
2013-05-06 19:18:00,66.9,48.2,29.91,ESE,107,1.2,0.0,51,0.00,SCT,,0.01,WeatherDisplay:10.37,2013-05-07 02:18:00,
2013-05-06 19:19:00,66.9,48.2,29.91,SW,227,2.3,2.3,51,0.00,SCT,,0.01,WeatherDisplay:10.37,2013-05-07 02:19:00,
2013-05-06 19:20:00,66.9,48.2,29.91,SSW,210,2.3,2.3,51,0.00,SCT,,0.01,WeatherDisplay:10.37,2013-05-07 02:20:00,
2013-05-06 19:24:00,66.9,48.7,29.91,SSW,199,2.3,2.3,52,0.00,SCT,,0.01,WeatherDisplay:10.37,2013-05-07 02:24:00,
2013-05-06 19:26:00,66.8,48.6,29.92,SSE,163,2.3,0.0,52,0.00,SCT,,0.01,WeatherDisplay:10.37,2013-05-07 02:26:00,
2013-05-06 19:30:00,66.5,48.3,29.91,SSE,163,0.0,0.0,52,0.00,SCT,,0.01,WeatherDisplay:10.37,2013-05-07 02:30:00,
2013-05-06 19:31:00,66.4,48.2,29.92,SSE,163,0.0,0.0,52,0.00,SCT,,0.01,WeatherDisplay:10.37,2013-05-07 02:31:00,
2013-05-06 19:32:00,66.4,48.2,29.92,SSE,163,0.0,0.0,52,0.00,SCT,,0.01,WeatherDisplay:10.37,2013-05-07 02:32:00,
2013-05-06 19:35:00,66.3,48.1,29.92,SSW,203,2.3,2.3,52,0.00,SCT,,0.01,WeatherDisplay:10.37,2013-05-07 02:35:00,
2013-05-06 19:37:00,66.3,48.1,29.92,SE,143,4.6,4.6,52,0.00,SCT,,0.01,WeatherDisplay:10.37,2013-05-07 02:37:00,
2013-05-06 19:39:00,66.1,48.0,29.92,South,171,2.3,2.3,52,0.00,SCT,,0.01,WeatherDisplay:10.37,2013-05-07 02:39:00,
2013-05-06 19:40:00,66.0,47.9,29.92,WSW,250,2.3,2.3,52,0.00,SCT,,0.01,WeatherDisplay:10.37,2013-05-07 02:40:00,
2013-05-06 19:41:00,66.0,47.9,29.92,West,270,2.3,2.3,52,0.00,SCT,,0.01,WeatherDisplay:10.37,2013-05-07 02:41:00,
2013-05-06 19:42:00,65.9,47.8,29.91,West,270,2.3,0.0,52,0.00,SCT,,0.01,WeatherDisplay:10.37,2013-05-07 02:42:00,
2013-05-06 19:44:00,65.8,47.7,29.92,SSW,195,1.2,0.0,52,0.00,SCT,,0.01,WeatherDisplay:10.37,2013-05-07 02:44:00,
2013-05-06 19:45:00,65.8,47.7,29.92,SSW,195,1.0,1.0,52,0.00,SCT,,0.01,WeatherDisplay:10.37,2013-05-07 02:45:00,
2013-05-06 19:47:00,65.8,47.7,29.92,ESE,114,3.5,3.5,52,0.00,SCT,,0.01,WeatherDisplay:10.37,2013-05-07 02:47:00,
2013-05-06 19:48:00,65.8,47.7,29.92,SSE,158,1.2,1.2,52,0.00,SCT,,0.01,WeatherDisplay:10.37,2013-05-07 02:48:00,
2013-05-06 19:49:00,65.7,47.6,29.92,SSW,198,3.5,3.5,52,0.00,SCT,,0.01,WeatherDisplay:10.37,2013-05-07 02:49:00,
2013-05-06 19:51:00,65.6,48.0,29.92,SSW,199,3.5,0.0,53,0.00,SCT,,0.01,WeatherDisplay:10.37,2013-05-07 02:51:00,
2013-05-06 19:52:00,65.6,48.0,29.92,SSW,199,1.2,0.0,53,0.00,SCT,,0.01,WeatherDisplay:10.37,2013-05-07 02:52:00,
2013-05-06 19:53:00,65.6,48.0,29.92,SE,141,2.3,2.3,53,0.00,SCT,,0.01,WeatherDisplay:10.37,2013-05-07 02:53:00,
2013-05-06 19:54:00,65.5,47.9,29.92,SSE,159,2.3,2.3,53,0.00,SCT,,0.01,WeatherDisplay:10.37,2013-05-07 02:54:00,
2013-05-06 19:55:00,65.4,47.8,29.92,SSE,159,2.3,0.0,53,0.00,SCT,,0.01,WeatherDisplay:10.37,2013-05-07 02:55:00,
2013-05-06 19:56:00,65.4,47.8,29.92,SSE,159,0.0,0.0,53,0.00,SCT,,0.01,WeatherDisplay:10.37,2013-05-07 02:56:00,
2013-05-06 19:57:00,65.4,47.8,29.92,SSW,204,1.0,1.0,53,0.00,SCT,,0.01,WeatherDisplay:10.37,2013-05-07 02:57:00,
2013-05-06 19:59:00,65.4,47.8,29.92,SSW,208,2.3,2.3,53,0.00,SCT,,0.01,WeatherDisplay:10.37,2013-05-07 02:59:00,
2013-05-06 20:00:00,65.4,47.8,29.92,SSW,208,0.0,0.0,53,0.00,SCT,,0.01,WeatherDisplay:10.37,2013-05-07 03:00:00,
2013-05-06 20:02:00,65.4,47.8,29.92,SSW,208,0.0,0.0,53,0.00,SCT,,0.01,WeatherDisplay:10.37,2013-05-07 03:02:00,
2013-05-06 20:03:00,65.5,47.9,29.92,SSW,208,0.0,0.0,53,0.00,SCT,,0.01,WeatherDisplay:10.37,2013-05-07 03:03:00,
2013-05-06 20:05:00,65.5,48.4,29.92,SSW,207,0.0,0.1,54,0.00,SCT,,0.01,WeatherDisplay:10.37,2013-05-07 03:05:00,
2013-05-06 20:06:00,65.5,47.9,29.92,SE,146,0.0,0.2,53,0.00,SCT,,0.01,WeatherDisplay:10.37,2013-05-07 03:06:00,
2013-05-06 20:07:00,65.5,47.9,29.92,SE,146,1.2,1.2,53,0.00,SCT,,0.01,WeatherDisplay:10.37,2013-05-07 03:07:00,
2013-05-06 20:08:00,65.5,47.9,29.92,SE,146,0.0,0.0,53,0.00,SCT,,0.01,WeatherDisplay:10.37,2013-05-07 03:08:00,
2013-05-06 20:11:00,65.5,48.4,29.92,ESE,116,2.0,2.0,54,0.00,SCT,,0.01,WeatherDisplay:10.37,2013-05-07 03:11:00,
2013-05-06 20:12:00,65.4,48.3,29.92,SE,145,2.3,2.3,54,0.00,SCT,,0.01,WeatherDisplay:10.37,2013-05-07 03:12:00,
2013-05-06 20:13:00,65.4,47.8,29.92,East,100,1.2,1.2,53,0.00,SCT,,0.01,WeatherDisplay:10.37,2013-05-07 03:13:00,
2013-05-06 20:14:00,65.4,48.3,29.93,East,100,1.2,0.0,54,0.00,SCT,,0.01,WeatherDisplay:10.37,2013-05-07 03:14:00,
2013-05-06 20:16:00,65.3,47.7,29.93,SSE,154,2.3,0.0,53,0.00,SCT,,0.01,WeatherDisplay:10.37,2013-05-07 03:16:00,
2013-05-06 20:17:00,65.3,48.2,29.93,SE,124,0.0,0.1,54,0.00,SCT,,0.01,WeatherDisplay:10.37,2013-05-07 03:17:00,
2013-05-06 20:18:00,65.3,48.2,29.92,South,169,2.3,2.3,54,0.00,SCT,,0.01,WeatherDisplay:10.37,2013-05-07 03:18:00,
2013-05-06 20:19:00,65.2,47.6,29.93,South,169,2.3,0.0,53,0.00,SCT,,0.01,WeatherDisplay:10.37,2013-05-07 03:19:00,
2013-05-06 20:22:00,65.2,48.1,29.93,WSW,250,1.2,0.0,54,0.00,SCT,,0.01,WeatherDisplay:10.37,2013-05-07 03:22:00,
2013-05-06 20:23:00,65.2,48.1,29.93,WSW,250,0.0,0.0,54,0.00,SCT,,0.01,WeatherDisplay:10.37,2013-05-07 03:23:00,
2013-05-06 20:24:00,65.1,48.0,29.93,ESE,120,1.2,0.0,54,0.00,SCT,,0.01,WeatherDisplay:10.37,2013-05-07 03:24:00,
2013-05-06 20:25:00,65.2,48.1,29.93,South,172,0.0,1.0,54,0.00,SCT,,0.01,WeatherDisplay:10.37,2013-05-07 03:25:00,
2013-05-06 20:26:00,65.1,48.0,29.93,ESE,116,1.2,1.2,54,0.00,SCT,,0.01,WeatherDisplay:10.37,2013-05-07 03:26:00,
2013-05-06 20:27:00,65.1,48.0,29.93,ESE,116,1.2,1.2,54,0.00,SCT,,0.01,WeatherDisplay:10.37,2013-05-07 03:27:00,
2013-05-06 20:28:00,65.1,48.0,29.93,ESE,116,0.0,0.0,54,0.00,SCT,,0.01,WeatherDisplay:10.37,2013-05-07 03:28:00,
2013-05-06 20:30:00,65.1,48.0,29.93,SE,138,0.0,0.0,54,0.00,SCT,,0.01,WeatherDisplay:10.37,2013-05-07 03:30:00,
2013-05-06 20:32:00,65.0,47.9,29.93,SE,138,0.0,0.0,54,0.00,SCT,,0.01,WeatherDisplay:10.37,2013-05-07 03:32:00,
2013-05-06 20:33:00,64.9,47.9,29.93,SE,138,0.0,0.0,54,0.00,SCT,,0.01,WeatherDisplay:10.37,2013-05-07 03:33:00,
2013-05-06 20:34:00,64.8,47.8,29.93,SE,138,0.0,0.0,54,0.00,SCT,,0.01,WeatherDisplay:10.37,2013-05-07 03:34:00,
2013-05-06 20:35:00,64.8,48.2,29.93,SE,138,0.0,0.0,55,0.00,SCT,,0.01,WeatherDisplay:10.37,2013-05-07 03:35:00,
2013-05-06 20:38:00,64.8,48.2,29.93,SE,137,1.2,0.0,55,0.00,SCT,,0.01,WeatherDisplay:10.37,2013-05-07 03:38:00,
2013-05-06 20:39:00,64.7,48.2,29.93,SE,137,0.0,0.0,55,0.00,SCT,,0.01,WeatherDisplay:10.37,2013-05-07 03:39:00,
2013-05-06 20:40:00,64.7,48.2,29.94,SE,137,1.2,1.2,55,0.00,SCT,,0.01,WeatherDisplay:10.37,2013-05-07 03:40:00,
2013-05-06 20:41:00,64.7,48.2,29.94,SE,137,1.2,1.2,55,0.00,SCT,,0.01,WeatherDisplay:10.37,2013-05-07 03:41:00,
2013-05-06 20:43:00,64.6,48.1,29.94,SE,137,1.2,1.2,55,0.00,SCT,,0.01,WeatherDisplay:10.37,2013-05-07 03:43:00,
2013-05-06 20:45:00,64.6,48.1,29.94,SE,138,0.0,1.0,55,0.00,SCT,,0.01,WeatherDisplay:10.37,2013-05-07 03:45:00,
2013-05-06 20:46:00,64.6,48.1,29.94,SE,138,1.0,1.0,55,0.00,SCT,,0.01,WeatherDisplay:10.37,2013-05-07 03:46:00,
2013-05-06 20:48:00,64.6,48.1,29.94,SE,138,1.2,0.0,55,0.00,SCT,,0.01,WeatherDisplay:10.37,2013-05-07 03:48:00,
2013-05-06 20:49:00,64.5,48.0,29.94,SE,138,0.0,0.0,55,0.00,SCT,,0.01,WeatherDisplay:10.37,2013-05-07 03:49:00,
2013-05-06 20:50:00,64.5,48.0,29.94,SE,139,0.0,0.0,55,0.00,SCT,,0.01,WeatherDisplay:10.37,2013-05-07 03:50:00,
2013-05-06 20:51:00,64.5,48.0,29.94,SE,139,0.0,0.0,55,0.00,SCT,,0.01,WeatherDisplay:10.37,2013-05-07 03:51:00,
2013-05-06 20:53:00,64.3,47.8,29.94,SE,139,0.0,0.0,55,0.00,SCT,,0.01,WeatherDisplay:10.37,2013-05-07 03:53:00,
2013-05-06 20:54:00,64.2,47.7,29.94,SE,139,0.0,0.0,55,0.00,SCT,,0.01,WeatherDisplay:10.37,2013-05-07 03:54:00,
2013-05-06 20:56:00,64.1,47.6,29.95,SE,139,0.0,0.0,55,0.00,SCT,,0.01,WeatherDisplay:10.37,2013-05-07 03:56:00,
2013-05-06 20:57:00,64.1,47.6,29.94,SE,139,0.0,0.0,55,0.00,SCT,,0.01,WeatherDisplay:10.37,2013-05-07 03:57:00,
2013-05-06 20:58:00,64.0,47.5,29.94,SE,139,0.0,0.0,55,0.00,SCT,,0.01,WeatherDisplay:10.37,2013-05-07 03:58:00,
2013-05-06 21:00:00,64.0,48.0,29.94,SE,139,0.0,0.0,56,0.00,SCT,,0.01,WeatherDisplay:10.37,2013-05-07 04:00:00,
2013-05-06 21:01:00,64.0,48.0,29.95,South,190,0.0,0.0,56,0.00,SCT,,0.01,WeatherDisplay:10.37,2013-05-07 04:01:00,
2013-05-06 21:02:00,63.9,47.9,29.95,South,190,0.0,0.0,56,0.00,SCT,,0.01,WeatherDisplay:10.37,2013-05-07 04:02:00,
2013-05-06 21:06:00,63.9,47.9,29.95,South,190,0.0,0.0,56,0.00,SCT,,0.01,WeatherDisplay:10.37,2013-05-07 04:06:00,
2013-05-06 21:07:00,63.9,47.9,29.95,South,190,0.0,0.0,56,0.00,SCT,,0.01,WeatherDisplay:10.37,2013-05-07 04:07:00,
2013-05-06 21:12:00,63.9,47.9,29.95,WSW,239,1.2,0.0,56,0.00,SCT,,0.01,WeatherDisplay:10.37,2013-05-07 04:12:00,
2013-05-06 21:13:00,63.9,47.9,29.96,WSW,238,0.0,0.0,56,0.00,SCT,,0.01,WeatherDisplay:10.37,2013-05-07 04:13:00,
2013-05-06 21:17:00,63.7,47.7,29.96,SSW,201,0.0,0.0,56,0.00,SCT,,0.01,WeatherDisplay:10.37,2013-05-07 04:17:00,
2013-05-06 21:18:00,63.7,47.7,29.96,SSW,201,0.0,0.0,56,0.00,SCT,,0.01,WeatherDisplay:10.37,2013-05-07 04:18:00,
2013-05-06 21:19:00,63.7,47.7,29.96,SSW,201,0.0,0.0,56,0.00,SCT,,0.01,WeatherDisplay:10.37,2013-05-07 04:19:00,
2013-05-06 21:22:00,63.8,47.8,29.96,SSW,201,0.0,0.0,56,0.00,SCT,,0.01,WeatherDisplay:10.37,2013-05-07 04:22:00,
2013-05-06 21:23:00,63.9,47.9,29.96,SSW,201,0.0,0.0,56,0.00,SCT,,0.01,WeatherDisplay:10.37,2013-05-07 04:23:00,
2013-05-06 21:24:00,63.9,47.9,29.97,SSW,201,0.0,0.0,56,0.00,SCT,,0.01,WeatherDisplay:10.37,2013-05-07 04:24:00,
2013-05-06 21:27:00,63.9,47.9,29.97,SSW,201,1.0,0.0,56,0.00,SCT,,0.01,WeatherDisplay:10.37,2013-05-07 04:27:00,
2013-05-06 21:28:00,63.9,47.9,29.97,SSW,198,0.0,0.0,56,0.00,SCT,,0.01,WeatherDisplay:10.37,2013-05-07 04:28:00,
2013-05-06 21:29:00,63.9,47.9,29.97,SSW,196,1.2,1.2,56,0.00,SCT,,0.01,WeatherDisplay:10.37,2013-05-07 04:29:00,
2013-05-06 21:30:00,63.9,48.4,29.97,SSW,196,1.2,0.0,57,0.00,SCT,,0.01,WeatherDisplay:10.37,2013-05-07 04:30:00,
2013-05-06 21:33:00,63.9,47.9,29.98,SSW,196,0.0,0.0,56,0.00,SCT,,0.01,WeatherDisplay:10.37,2013-05-07 04:33:00,
2013-05-06 21:34:00,63.9,47.9,29.97,SSW,196,0.0,0.0,56,0.00,SCT,,0.01,WeatherDisplay:10.37,2013-05-07 04:34:00,
2013-05-06 21:35:00,63.9,47.9,29.97,SSW,197,0.0,0.0,56,0.00,SCT,,0.01,WeatherDisplay:10.37,2013-05-07 04:35:00,
2013-05-06 21:38:00,63.9,47.9,29.98,SSE,162,1.2,0.0,56,0.00,SCT,,0.01,WeatherDisplay:10.37,2013-05-07 04:38:00,
2013-05-06 21:39:00,63.8,47.8,29.98,SSE,162,0.0,0.0,56,0.00,SCT,,0.01,WeatherDisplay:10.37,2013-05-07 04:39:00,
2013-05-06 21:40:00,63.8,47.8,29.97,SSW,192,0.0,1.0,56,0.00,SCT,,0.01,WeatherDisplay:10.37,2013-05-07 04:40:00,
2013-05-06 21:43:00,63.6,48.1,29.98,SSE,162,0.0,0.0,57,0.00,SCT,,0.01,WeatherDisplay:10.37,2013-05-07 04:43:00,
2013-05-06 21:44:00,63.6,48.1,29.98,SSE,162,0.0,0.0,57,0.00,SCT,,0.01,WeatherDisplay:10.37,2013-05-07 04:44:00,
2013-05-06 21:45:00,63.6,48.1,29.97,SSE,162,0.0,0.0,57,0.00,SCT,,0.01,WeatherDisplay:10.37,2013-05-07 04:45:00,
2013-05-06 21:46:00,63.6,48.1,29.98,SSE,162,0.0,0.0,57,0.00,SCT,,0.01,WeatherDisplay:10.37,2013-05-07 04:46:00,
2013-05-06 21:49:00,63.5,48.0,29.98,SSE,162,0.0,0.0,57,0.00,SCT,,0.01,WeatherDisplay:10.37,2013-05-07 04:49:00,
2013-05-06 21:51:00,63.5,48.0,29.98,SSE,162,0.0,0.0,57,0.00,SCT,,0.01,WeatherDisplay:10.37,2013-05-07 04:51:00,
2013-05-06 21:54:00,63.5,48.5,29.98,SSE,162,0.0,0.0,58,0.00,SCT,,0.01,WeatherDisplay:10.37,2013-05-07 04:54:00,
2013-05-06 21:55:00,63.5,48.5,29.98,SSE,162,0.0,0.0,58,0.00,SCT,,0.01,WeatherDisplay:10.37,2013-05-07 04:55:00,
2013-05-06 21:56:00,63.4,47.9,29.98,SSE,162,0.0,0.0,57,0.00,SCT,,0.01,WeatherDisplay:10.37,2013-05-07 04:56:00,
2013-05-06 21:57:00,63.4,47.9,29.98,SSE,162,0.0,0.0,57,0.00,SCT,,0.01,WeatherDisplay:10.37,2013-05-07 04:57:00,
2013-05-06 22:00:00,63.4,47.9,29.98,SSE,162,0.0,0.0,57,0.00,SCT,,0.01,WeatherDisplay:10.37,2013-05-07 05:00:00,
2013-05-06 22:01:00,63.5,48.0,29.99,SSE,162,0.0,0.0,57,0.00,SCT,,0.01,WeatherDisplay:10.37,2013-05-07 05:01:00,
2013-05-06 22:04:00,63.5,48.0,29.99,SSW,211,1.0,1.0,57,0.00,SCT,,0.01,WeatherDisplay:10.37,2013-05-07 05:04:00,
2013-05-06 22:05:00,63.5,48.0,29.99,SSE,164,0.0,2.0,57,0.00,SCT,,0.01,WeatherDisplay:10.37,2013-05-07 05:05:00,
2013-05-06 22:06:00,63.4,47.9,29.99,SW,215,0.0,0.0,57,0.00,SCT,,0.01,WeatherDisplay:10.37,2013-05-07 05:06:00,
2013-05-06 22:09:00,63.5,48.5,29.98,SW,215,0.0,0.0,58,0.00,SCT,,0.01,WeatherDisplay:10.37,2013-05-07 05:09:00,
2013-05-06 22:10:00,63.5,48.5,29.98,SW,215,0.0,0.0,58,0.00,SCT,,0.01,WeatherDisplay:10.37,2013-05-07 05:10:00,
2013-05-06 22:11:00,63.5,48.5,29.98,SW,215,0.0,0.0,58,0.00,SCT,,0.01,WeatherDisplay:10.37,2013-05-07 05:11:00,
2013-05-06 22:13:00,63.4,48.4,29.99,SW,215,0.0,0.0,58,0.00,SCT,,0.01,WeatherDisplay:10.37,2013-05-07 05:13:00,
2013-05-06 22:14:00,63.4,48.8,29.98,SW,215,0.0,0.0,59,0.00,SCT,,0.01,WeatherDisplay:10.37,2013-05-07 05:14:00,
2013-05-06 22:15:00,63.4,48.8,29.98,SW,215,0.0,0.0,59,0.00,SCT,,0.01,WeatherDisplay:10.37,2013-05-07 05:15:00,
2013-05-06 22:17:00,63.3,48.7,29.98,WNW,284,0.0,0.2,59,0.00,SCT,,0.01,WeatherDisplay:10.37,2013-05-07 05:17:00,
2013-05-06 22:18:00,63.3,49.2,29.99,WNW,285,0.0,0.0,60,0.00,SCT,,0.01,WeatherDisplay:10.37,2013-05-07 05:18:00,
2013-05-06 22:19:00,63.2,49.1,29.99,WNW,285,0.0,0.0,60,0.00,SCT,,0.01,WeatherDisplay:10.37,2013-05-07 05:19:00,
2013-05-06 22:20:00,63.2,49.1,29.99,WNW,285,0.0,0.0,60,0.00,SCT,,0.01,WeatherDisplay:10.37,2013-05-07 05:20:00,
2013-05-06 22:22:00,63.0,49.3,29.98,WNW,285,0.0,0.0,61,0.00,SCT,,0.01,WeatherDisplay:10.37,2013-05-07 05:22:00,
2013-05-06 22:24:00,62.9,49.2,29.99,WNW,285,0.0,0.0,61,0.00,SCT,,0.01,WeatherDisplay:10.37,2013-05-07 05:24:00,
2013-05-06 22:25:00,62.9,49.2,29.99,WNW,285,0.0,0.0,61,0.00,SCT,,0.01,WeatherDisplay:10.37,2013-05-07 05:25:00,
2013-05-06 22:27:00,62.8,49.6,29.99,WNW,285,0.0,0.0,62,0.00,SCT,,0.01,WeatherDisplay:10.37,2013-05-07 05:27:00,
2013-05-06 22:29:00,62.6,49.8,29.99,WNW,285,0.0,0.0,63,0.00,SCT,,0.01,WeatherDisplay:10.37,2013-05-07 05:29:00,
2013-05-06 22:30:00,62.6,50.2,29.99,WNW,285,0.0,0.0,64,0.00,SCT,,0.01,WeatherDisplay:10.37,2013-05-07 05:30:00,
2013-05-06 22:31:00,62.6,50.2,29.99,WNW,285,0.0,0.0,64,0.00,SCT,,0.01,WeatherDisplay:10.37,2013-05-07 05:31:00,
2013-05-06 22:33:00,62.5,49.7,29.99,WNW,285,0.0,0.0,63,0.00,SCT,,0.01,WeatherDisplay:10.37,2013-05-07 05:33:00,
2013-05-06 22:35:00,62.4,49.6,29.99,WNW,285,0.0,0.0,63,0.00,SCT,,0.01,WeatherDisplay:10.37,2013-05-07 05:35:00,
2013-05-06 22:36:00,62.4,49.6,29.99,WNW,285,0.0,0.0,63,0.00,SCT,,0.01,WeatherDisplay:10.37,2013-05-07 05:36:00,
2013-05-06 22:38:00,62.3,49.5,29.99,WNW,285,0.0,0.0,63,0.00,SCT,,0.01,WeatherDisplay:10.37,2013-05-07 05:38:00,
2013-05-06 22:39:00,62.2,49.4,29.99,WNW,285,0.0,0.0,63,0.00,SCT,,0.01,WeatherDisplay:10.37,2013-05-07 05:39:00,
2013-05-06 22:40:00,62.2,49.5,29.99,WNW,285,0.0,0.0,63,0.00,SCT,,0.01,WeatherDisplay:10.37,2013-05-07 05:40:00,
2013-05-06 22:41:00,62.0,49.7,29.99,WNW,285,0.0,0.0,64,0.00,SCT,,0.01,WeatherDisplay:10.37,2013-05-07 05:41:00,
2013-05-06 22:42:00,62.0,50.1,29.99,WNW,285,0.0,0.0,65,0.00,SCT,,0.01,WeatherDisplay:10.37,2013-05-07 05:42:00,
2013-05-06 22:43:00,62.0,50.1,29.99,WNW,285,0.0,0.0,65,0.00,SCT,,0.01,WeatherDisplay:10.37,2013-05-07 05:43:00,
2013-05-06 22:45:00,62.1,50.2,29.99,WNW,285,0.0,0.0,65,0.00,SCT,,0.01,WeatherDisplay:10.37,2013-05-07 05:45:00,
2013-05-06 22:47:00,62.2,49.9,29.99,WNW,285,1.2,0.0,64,0.00,SCT,,0.01,WeatherDisplay:10.37,2013-05-07 05:47:00,
2013-05-06 22:49:00,62.2,49.9,29.99,WNW,285,0.0,0.0,64,0.00,SCT,,0.01,WeatherDisplay:10.37,2013-05-07 05:49:00,
2013-05-06 22:50:00,62.2,49.4,29.99,WNW,285,0.0,0.0,63,0.00,SCT,,0.01,WeatherDisplay:10.37,2013-05-07 05:50:00,
2013-05-06 22:53:00,61.9,49.6,29.99,WNW,282,1.2,0.0,64,0.00,SCT,,0.01,WeatherDisplay:10.37,2013-05-07 05:53:00,
2013-05-06 22:54:00,61.7,49.8,30.00,WNW,282,0.0,0.0,65,0.00,SCT,,0.01,WeatherDisplay:10.37,2013-05-07 05:54:00,
2013-05-06 22:55:00,61.7,49.8,30.00,WNW,282,0.0,0.0,65,0.00,SCT,,0.01,WeatherDisplay:10.37,2013-05-07 05:55:00,
2013-05-06 22:58:00,61.5,49.2,29.99,West,281,1.2,0.0,64,0.00,SCT,,0.01,WeatherDisplay:10.37,2013-05-07 05:58:00,
2013-05-06 22:59:00,61.3,49.4,29.99,SW,233,1.2,1.2,65,0.00,SCT,,0.01,WeatherDisplay:10.37,2013-05-07 05:59:00,
2013-05-06 23:00:00,61.3,49.4,29.99,SW,232,1.2,1.2,65,0.00,SCT,,0.01,WeatherDisplay:10.37,2013-05-07 06:00:00,
2013-05-06 23:03:00,61.3,49.4,29.99,WSW,246,1.2,1.2,65,0.00,SCT,,0.01,WeatherDisplay:10.37,2013-05-07 06:03:00,
2013-05-06 23:05:00,61.3,49.4,29.99,WSW,246,1.2,0.0,65,0.00,SCT,,0.01,WeatherDisplay:10.37,2013-05-07 06:05:00,
2013-05-06 23:06:00,61.3,49.4,30.00,WSW,246,1.2,0.0,65,0.00,SCT,,0.01,WeatherDisplay:10.37,2013-05-07 06:06:00,
2013-05-06 23:08:00,61.3,49.8,30.00,WSW,246,0.0,0.0,66,0.00,SCT,,0.01,WeatherDisplay:10.37,2013-05-07 06:08:00,
2013-05-06 23:10:00,61.3,49.8,29.99,WSW,245,0.0,1.0,66,0.00,SCT,,0.01,WeatherDisplay:10.37,2013-05-07 06:10:00,
2013-05-06 23:11:00,61.3,49.4,30.00,WSW,246,1.2,1.2,65,0.00,SCT,,0.01,WeatherDisplay:10.37,2013-05-07 06:11:00,
2013-05-06 23:12:00,61.1,49.2,29.99,WSW,246,0.0,0.2,65,0.00,SCT,,0.01,WeatherDisplay:10.37,2013-05-07 06:12:00,
2013-05-06 23:14:00,61.0,49.1,30.00,WSW,246,2.3,2.3,65,0.00,SCT,,0.01,WeatherDisplay:10.37,2013-05-07 06:14:00,
2013-05-06 23:15:00,60.9,49.1,30.00,WSW,246,0.0,0.0,65,0.00,SCT,,0.01,WeatherDisplay:10.37,2013-05-07 06:15:00,
2013-05-06 23:16:00,60.9,49.1,30.00,WSW,246,0.0,0.0,65,0.00,SCT,,0.01,WeatherDisplay:10.37,2013-05-07 06:16:00,
2013-05-06 23:17:00,60.9,49.5,30.00,WSW,246,0.0,0.0,66,0.00,SCT,,0.01,WeatherDisplay:10.37,2013-05-07 06:17:00,
2013-05-06 23:18:00,60.9,49.5,30.00,WSW,246,0.0,0.0,66,0.00,SCT,,0.01,WeatherDisplay:10.37,2013-05-07 06:18:00,
2013-05-06 23:20:00,61.0,49.6,30.00,WSW,246,0.0,0.0,66,0.00,SCT,,0.01,WeatherDisplay:10.37,2013-05-07 06:20:00,
2013-05-06 23:22:00,61.0,49.1,30.00,WSW,246,0.0,0.0,65,0.00,SCT,,0.01,WeatherDisplay:10.37,2013-05-07 06:22:00,
2013-05-06 23:23:00,61.0,49.1,30.00,WSW,246,0.0,0.0,65,0.00,SCT,,0.01,WeatherDisplay:10.37,2013-05-07 06:23:00,
2013-05-06 23:27:00,61.2,49.3,30.00,WSW,246,0.0,0.0,65,0.00,SCT,,0.01,WeatherDisplay:10.37,2013-05-07 06:27:00,
2013-05-06 23:28:00,61.3,49.4,30.00,WSW,246,0.0,0.0,65,0.00,SCT,,0.01,WeatherDisplay:10.37,2013-05-07 06:28:00,
2013-05-06 23:32:00,61.4,49.1,30.00,WSW,246,0.0,0.0,64,0.00,SCT,,0.01,WeatherDisplay:10.37,2013-05-07 06:32:00,
2013-05-06 23:33:00,61.4,49.5,30.00,WSW,246,0.0,0.0,65,0.00,SCT,,0.01,WeatherDisplay:10.37,2013-05-07 06:33:00,
2013-05-06 23:34:00,61.4,49.1,30.00,WSW,246,1.0,0.0,64,0.00,SCT,,0.01,WeatherDisplay:10.37,2013-05-07 06:34:00,
2013-05-06 23:37:00,61.5,49.2,30.00,WSW,246,0.0,0.0,64,0.00,SCT,,0.01,WeatherDisplay:10.37,2013-05-07 06:37:00,
2013-05-06 23:39:00,61.4,49.1,30.00,WSW,246,0.0,0.0,64,0.00,SCT,,0.01,WeatherDisplay:10.37,2013-05-07 06:39:00,
2013-05-06 23:40:00,61.4,49.5,30.00,WSW,246,0.0,0.0,65,0.00,SCT,,0.01,WeatherDisplay:10.37,2013-05-07 06:40:00,
2013-05-06 23:42:00,61.4,49.1,30.00,WSW,246,0.0,0.0,64,0.00,SCT,,0.01,WeatherDisplay:10.37,2013-05-07 06:42:00,
2013-05-06 23:43:00,61.4,49.1,30.00,WSW,246,0.0,0.0,64,0.00,SCT,,0.01,WeatherDisplay:10.37,2013-05-07 06:43:00,
2013-05-06 23:44:00,61.4,49.5,30.00,WSW,246,0.0,0.0,65,0.00,SCT,,0.01,WeatherDisplay:10.37,2013-05-07 06:44:00,
2013-05-06 23:47:00,61.5,49.6,30.00,WSW,246,0.0,0.0,65,0.00,SCT,,0.01,WeatherDisplay:10.37,2013-05-07 06:47:00,
2013-05-06 23:49:00,61.5,49.6,30.00,WSW,246,0.0,0.0,65,0.00,SCT,,0.01,WeatherDisplay:10.37,2013-05-07 06:49:00,
2013-05-06 23:52:00,61.5,49.2,30.00,WSW,246,1.2,1.2,64,0.00,SCT,,0.01,WeatherDisplay:10.37,2013-05-07 06:52:00,
2013-05-06 23:53:00,61.5,49.2,30.00,WSW,246,1.2,0.0,64,0.00,SCT,,0.01,WeatherDisplay:10.37,2013-05-07 06:53:00,
2013-05-06 23:54:00,61.4,49.5,30.00,WSW,246,1.0,0.0,65,0.00,SCT,,0.01,WeatherDisplay:10.37,2013-05-07 06:54:00,
2013-05-06 23:55:00,61.4,49.1,30.00,WSW,246,0.0,1.0,64,0.00,SCT,,0.01,WeatherDisplay:10.37,2013-05-07 06:55:00,
2013-05-06 23:57:00,61.3,49.0,30.00,WSW,246,1.2,1.2,64,0.00,SCT,,0.01,WeatherDisplay:10.37,2013-05-07 06:57:00,
2013-05-06 23:58:00,61.3,49.0,30.00,WSW,246,1.2,0.0,64,0.00,SCT,,0.01,WeatherDisplay:10.37,2013-05-07 06:58:00,